GFSMA_prec_precacc_225.txt.gz
Total_Precipitation_Accumulation
1.13 1.58 1.42 1.48 1.04 1.50 0.97 0.63 0.60 0.54 0.62 0.69 0.62 0.53 0.31 0.38 0.22 0.27 0.37 0.56 0.62 0.74 1.09 1.08 1.04 1.03 0.74 0.51 0.48 0.52 0.60 0.66 0.72 0.80 0.97 0.96 0.68 0.60 0.54 0.59 0.47 0.42 0.46
1.21 1.66 1.59 1.53 1.25 1.27 1.13 0.90 0.55 0.56 0.52 0.72 0.59 0.51 0.39 0.40 0.18 0.18 0.29 0.46 0.54 0.61 0.92 1.33 1.47 1.27 0.75 0.42 0.25 0.27 0.33 0.36 0.51 0.77 0.99 1.00 0.83 0.62 0.55 0.46 0.44 0.42 0.39
0.93 1.36 1.61 1.44 1.37 1.32 1.13 1.16 0.98 0.71 0.69 0.96 0.67 0.58 0.46 0.49 0.29 0.13 0.21 0.29 0.32 0.44 0.62 0.87 1.13 1.15 0.89 0.50 0.29 0.18 0.20 0.17 0.23 0.40 0.52 0.70 0.87 0.80 0.74 0.65 0.62 0.59 0.52
1.17 1.44 1.61 1.89 2.06 2.18 1.85 1.79 1.78 1.37 1.14 1.21 1.15 0.79 0.62 0.51 0.48 0.17 0.14 0.30 0.33 0.34 0.47 0.59 0.80 0.95 0.95 0.71 0.47 0.30 0.22 0.25 0.22 0.28 0.36 0.52 0.78 0.78 0.85 0.81 0.82 0.85 0.86
2.18 2.05 2.01 2.37 2.69 2.51 2.28 1.96 1.61 1.44 1.13 1.20 1.29 1.03 0.86 0.64 0.64 0.53 0.24 0.22 0.37 0.35 0.33 0.41 0.47 0.55 0.67 0.78 0.74 0.57 0.42 0.36 0.30 0.31 0.35 0.37 0.49 0.89 1.12 1.11 0.99 1.08 1.26
1.97 2.26 2.34 2.00 2.13 2.29 2.25 2.20 2.17 2.06 1.73 1.42 1.50 1.57 1.26 1.16 0.93 0.87 0.58 0.33 0.33 0.39 0.35 0.42 0.40 0.41 0.57 0.74 0.84 0.79 0.59 0.47 0.45 0.39 0.40 0.34 0.35 0.49 0.62 0.93 1.25 1.41 1.47
1.97 2.46 2.71 2.88 2.46 1.94 2.13 2.17 2.22 2.08 1.95 1.66 1.98 2.05 1.68 1.20 1.07 0.85 0.69 0.51 0.53 0.44 0.56 0.49 0.59 0.52 0.62 0.69 0.73 0.69 0.62 0.52 0.47 0.47 0.42 0.31 0.35 0.37 0.51 0.75 1.11 1.41 1.75
2.07 2.10 2.35 2.56 2.54 2.09 1.57 1.38 1.72 2.25 2.45 2.28 2.27 2.16 1.97 1.72 1.31 1.04 0.73 0.53 0.42 0.42 0.56 0.73 0.56 0.58 0.71 0.75 0.62 0.63 0.66 0.68 0.55 0.53 0.69 0.61 0.47 0.38 0.38 0.51 0.66 1.09 1.43
1.95 2.23 2.42 2.33 2.13 1.89 1.64 1.62 1.85 2.24 2.12 2.19 2.11 2.29 2.12 1.70 1.28 1.15 0.91 0.62 0.71 0.78 0.68 0.78 0.92 0.72 0.62 0.62 0.61 0.57 0.52 0.62 0.85 0.89 0.94 0.79 0.67 0.52 0.54 0.58 0.62 0.74 0.96
1.89 2.56 2.97 2.71 2.84 3.07 2.34 1.82 1.44 1.75 2.23 2.43 2.81 2.32 1.53 1.28 1.18 1.34 1.27 1.03 0.85 0.92 1.06 1.56 1.77 1.96 1.94 1.89 1.72 1.45 1.36 1.34 1.34 1.60 1.77 1.69 1.49 1.54 1.65 1.56 1.14 0.81 0.78
1.47 2.02 2.66 3.05 3.27 3.42 3.28 2.97 2.29 2.12 2.08 2.05 2.11 2.16 2.26 1.91 1.56 1.20 1.20 1.15 0.99 0.82 0.74 0.66 1.00 1.43 1.44 1.28 1.30 1.34 1.23 1.50 1.47 1.48 1.60 1.50 1.36 1.37 1.53 2.00 2.07 1.59 1.21
1.31 1.72 2.07 2.42 3.14 3.44 3.35 3.11 3.20 2.97 2.47 2.29 2.37 2.12 1.62 1.44 1.54 1.56 1.34 1.14 1.21 1.12 1.00 0.89 0.82 0.89 0.94 0.83 0.84 0.96 0.78 0.67 0.85 0.91 0.89 0.89 0.79 0.78 0.85 0.89 1.17 1.43 1.28
2.10 2.30 2.52 2.45 2.69 3.11 3.89 3.57 3.54 3.43 3.28 2.57 2.28 2.09 1.78 1.46 1.22 1.36 1.39 1.41 1.61 1.54 1.61 1.37 1.04 0.89 0.94 1.14 1.02 0.92 0.85 0.87 0.77 0.81 0.73 0.62 0.56 0.54 0.51 0.62 0.67 0.72 0.71
2.85 3.17 3.62 3.90 3.32 3.06 3.62 4.00 3.68 3.57 4.06 3.93 3.29 2.70 2.19 2.01 1.98 1.85 1.85 2.16 2.04 1.68 1.50 1.35 1.06 1.00 1.07 1.08 1.06 1.34 1.20 1.09 1.05 0.97 0.85 0.76 0.74 0.70 0.65 0.64 0.68 0.74 0.77
1.76 2.22 2.45 2.64 3.28 3.43 3.15 3.28 3.33 3.05 3.27 3.77 3.69 3.74 3.42 2.52 2.08 2.22 2.30 2.36 2.73 2.18 1.26 0.93 1.23 1.20 1.27 1.20 1.16 1.08 0.97 1.07 1.14 1.12 1.01 0.86 0.77 0.83 0.95 0.95 0.88 0.86 0.86
2.22 1.77 1.96 2.03 1.83 1.82 2.06 2.53 2.73 2.50 2.46 2.65 2.97 3.26 3.47 3.45 3.06 2.76 2.68 2.71 2.66 2.31 1.95 1.31 1.34 1.14 1.21 1.06 1.15 1.08 0.83 0.89 1.04 1.22 1.24 1.34 1.35 1.14 0.99 1.13 1.30 1.18 0.99
2.27 2.17 1.87 1.86 1.87 1.72 1.87 2.04 2.02 2.06 2.27 2.36 2.38 2.75 3.21 3.67 3.59 3.57 3.43 3.09 2.75 2.72 3.12 2.45 1.75 1.63 1.61 1.23 1.08 0.98 0.79 0.64 0.58 0.78 1.03 1.24 1.50 2.01 1.85 1.49 1.45 1.71 1.63
1.95 1.59 1.41 1.41 1.52 1.65 1.84 1.91 1.94 1.98 1.77 1.71 1.88 2.02 2.42 2.73 2.95 3.09 3.28 3.50 3.41 3.36 3.39 3.16 3.04 2.90 2.53 1.99 1.63 1.24 0.83 0.69 0.57 0.69 0.75 0.84 1.01 1.30 1.71 1.90 1.70 1.67 1.83
1.76 1.68 1.43 1.37 1.36 1.50 1.64 1.99 1.93 1.75 1.86 2.13 2.15 2.07 2.07 2.05 2.20 2.54 2.61 2.52 2.43 2.57 2.99 3.22 3.21 2.96 2.68 2.24 1.94 1.48 1.32 1.05 0.71 0.71 0.68 0.79 0.89 0.88 1.04 1.38 1.77 1.82 1.73
1.78 2.11 2.22 2.29 2.13 1.78 1.71 1.70 1.76 1.87 1.84 2.08 2.14 1.83 1.87 1.89 1.69 1.67 2.03 2.21 2.12 2.33 2.58 2.82 3.02 2.94 2.74 2.51 2.36 2.16 1.88 1.51 1.45 1.21 1.03 0.85 0.84 0.93 0.96 1.00 1.07 1.31 1.62
1.14 1.75 1.84 1.89 1.77 1.62 1.66 1.28 1.03 1.44 1.65 1.62 1.94 1.68 1.40 1.40 1.36 1.03 1.12 1.59 1.98 2.21 2.42 2.46 2.72 2.82 2.74 2.52 2.49 2.37 2.29 2.14 2.13 1.69 1.43 1.36 1.29 1.16 1.16 1.21 1.23 1.25 1.27
0.75 0.93 1.17 1.31 1.43 1.21 1.36 1.01 0.96 1.04 1.06 1.01 1.00 0.96 1.04 1.26 1.06 1.11 1.08 1.11 1.22 1.48 1.71 1.77 1.85 1.93 1.89 1.88 1.97 2.19 2.26 2.54 2.48 1.70 1.86 1.88 1.64 1.69 1.74 1.76 2.05 1.72 1.39
1.12 1.02 0.99 0.99 1.22 1.30 1.49 1.40 1.26 1.12 1.23 1.27 1.23 1.21 1.10 1.06 1.14 0.88 1.19 1.29 1.25 1.43 1.54 1.43 1.43 1.32 1.33 1.31 1.49 1.74 1.82 1.87 1.81 1.55 1.82 2.10 1.86 1.88 1.83 1.96 2.42 2.14 2.02
1.43 1.38 1.35 1.13 0.84 0.90 1.12 1.06 1.41 1.51 1.69 1.64 1.59 1.42 1.43 1.49 1.53 1.46 1.43 1.70 1.49 1.37 1.44 1.52 1.61 1.52 1.41 1.28 1.35 1.45 1.59 1.86 1.87 1.51 1.46 1.81 1.46 1.65 1.66 1.59 1.99 1.45 1.30
1.52 1.53 1.49 1.49 1.31 1.17 1.36 1.12 1.09 1.00 1.22 1.31 1.26 1.30 1.28 1.15 1.88 1.90 1.58 1.75 1.97 2.16 2.48 2.47 2.42 2.42 2.29 2.00 1.67 1.80 2.15 2.43 2.41 2.03 1.70 1.58 1.40 1.35 1.32 1.19 1.19 1.37 0.96
1.77 1.72 1.66 1.54 1.79 1.50 1.95 1.61 1.54 1.37 1.49 1.51 1.41 1.43 1.92 1.47 1.89 1.61 1.57 1.54 1.69 1.74 1.88 2.11 2.07 1.99 1.86 1.78 2.00 1.77 1.71 1.89 1.93 1.96 1.49 1.45 1.22 1.34 1.56 1.24 0.97 0.87 0.77

GFSMA_prec_precacc_231.txt.gz
Total_Precipitation_Accumulation
1.14 1.64 1.47 1.51 1.05 1.50 0.98 0.65 0.61 0.54 0.62 0.69 0.62 0.53 0.32 0.38 0.22 0.30 0.38 0.56 0.62 0.74 1.10 1.09 1.04 1.03 0.75 0.51 0.48 0.52 0.61 0.67 0.73 0.80 0.97 0.96 0.69 0.60 0.55 0.59 0.47 0.43 0.47
1.40 1.95 1.88 1.79 1.36 1.30 1.28 1.05 0.59 0.57 0.52 0.72 0.59 0.51 0.39 0.40 0.18 0.25 0.31 0.46 0.54 0.61 0.92 1.33 1.48 1.28 0.76 0.42 0.25 0.27 0.34 0.36 0.52 0.78 1.00 1.01 0.83 0.62 0.55 0.46 0.44 0.43 0.41
1.32 1.80 2.01 1.79 1.57 1.49 1.30 1.46 1.11 0.80 0.73 0.97 0.68 0.58 0.47 0.50 0.30 0.20 0.22 0.29 0.32 0.44 0.62 0.87 1.13 1.16 0.89 0.51 0.30 0.18 0.20 0.18 0.24 0.41 0.53 0.71 0.87 0.80 0.74 0.66 0.62 0.60 0.53
1.56 1.83 1.90 2.08 2.31 2.53 2.26 2.07 2.11 1.58 1.21 1.25 1.18 0.82 0.68 0.55 0.51 0.21 0.15 0.30 0.33 0.34 0.47 0.59 0.81 0.96 0.95 0.72 0.47 0.31 0.23 0.26 0.23 0.29 0.37 0.53 0.78 0.78 0.85 0.81 0.82 0.86 0.87
2.36 2.30 2.31 2.66 2.99 2.95 2.64 2.25 1.81 1.65 1.27 1.26 1.39 1.15 0.94 0.67 0.71 0.57 0.27 0.23 0.37 0.35 0.33 0.41 0.47 0.56 0.68 0.79 0.75 0.57 0.43 0.37 0.31 0.31 0.36 0.37 0.49 0.90 1.12 1.12 1.00 1.09 1.27
2.13 2.46 2.55 2.23 2.35 2.52 2.50 2.40 2.37 2.18 1.81 1.51 1.57 1.63 1.28 1.17 0.96 0.90 0.60 0.37 0.34 0.39 0.35 0.42 0.40 0.42 0.58 0.75 0.85 0.80 0.62 0.49 0.46 0.40 0.41 0.35 0.36 0.50 0.63 0.94 1.26 1.41 1.48
2.04 2.62 2.96 3.13 2.61 2.06 2.28 2.38 2.47 2.30 2.10 1.79 2.14 2.18 1.71 1.21 1.08 0.88 0.74 0.55 0.56 0.45 0.56 0.50 0.59 0.52 0.62 0.69 0.74 0.70 0.64 0.54 0.48 0.48 0.43 0.33 0.36 0.38 0.52 0.76 1.12 1.42 1.77
2.11 2.18 2.56 2.88 2.76 2.24 1.82 1.67 2.03 2.59 2.80 2.58 2.53 2.49 2.33 2.01 1.44 1.12 0.81 0.59 0.46 0.43 0.56 0.73 0.56 0.58 0.71 0.75 0.62 0.65 0.69 0.70 0.56 0.54 0.70 0.63 0.48 0.39 0.39 0.52 0.66 1.09 1.44
1.97 2.29 2.55 2.56 2.38 2.18 2.03 2.12 2.38 2.70 2.47 2.49 2.34 2.54 2.38 1.94 1.43 1.24 0.99 0.69 0.77 0.82 0.69 0.78 0.92 0.72 0.62 0.62 0.61 0.58 0.54 0.63 0.87 0.91 0.96 0.83 0.69 0.53 0.56 0.59 0.62 0.75 0.97
1.90 2.59 3.06 2.94 3.15 3.44 3.01 2.84 2.61 2.95 3.44 3.62 3.91 3.25 2.31 2.02 1.79 1.83 1.62 1.24 0.97 0.99 1.11 1.57 1.78 1.96 1.95 1.90 1.73 1.45 1.37 1.35 1.36 1.61 1.79 1.72 1.52 1.56 1.67 1.56 1.15 0.82 0.78
1.47 2.02 2.68 3.21 3.51 3.59 3.47 3.39 3.23 3.32 3.39 3.24 3.28 3.33 3.50 3.15 2.47 1.79 1.68 1.57 1.22 0.97 0.86 0.70 1.01 1.43 1.45 1.31 1.31 1.34 1.23 1.51 1.47 1.48 1.62 1.54 1.38 1.39 1.54 2.01 2.07 1.60 1.22
1.31 1.72 2.09 2.44 3.16 3.46 3.42 3.19 3.31 3.23 2.95 3.00 3.32 3.22 2.56 2.28 2.26 2.10 1.76 1.52 1.58 1.39 1.17 0.99 0.86 0.90 0.95 0.86 0.88 0.98 0.79 0.68 0.87 0.92 0.90 0.92 0.82 0.80 0.87 0.91 1.17 1.45 1.30
2.10 2.31 2.54 2.48 2.72 3.14 3.92 3.62 3.64 3.62 3.71 3.07 2.71 2.61 2.39 2.08 1.75 1.88 1.82 1.81 2.05 1.99 1.99 1.58 1.13 0.93 0.97 1.18 1.07 0.95 0.92 0.90 0.78 0.83 0.76 0.64 0.58 0.56 0.54 0.63 0.68 0.75 0.73
2.85 3.17 3.64 3.93 3.36 3.13 3.72 4.09 3.75 3.64 4.20 4.24 3.72 3.18 2.74 2.47 2.45 2.32 2.23 2.49 2.39 2.06 1.88 1.69 1.29 1.12 1.14 1.12 1.11 1.41 1.31 1.20 1.10 1.00 0.87 0.78 0.77 0.72 0.68 0.66 0.71 0.77 0.78
1.78 2.25 2.52 2.69 3.31 3.46 3.24 3.40 3.44 3.15 3.39 3.95 3.97 4.15 4.08 3.33 2.91 2.92 2.83 2.72 2.98 2.47 1.54 1.16 1.43 1.38 1.42 1.31 1.24 1.18 1.09 1.22 1.25 1.19 1.06 0.89 0.80 0.85 0.97 0.96 0.90 0.88 0.87
2.34 1.84 2.00 2.04 1.85 1.84 2.10 2.60 2.84 2.65 2.61 2.82 3.15 3.49 3.83 3.98 3.94 3.81 3.64 3.31 3.02 2.53 2.17 1.50 1.48 1.30 1.35 1.17 1.30 1.21 0.94 1.05 1.16 1.30 1.30 1.39 1.39 1.17 1.01 1.14 1.31 1.19 1.00
2.29 2.18 1.87 1.86 1.87 1.72 1.88 2.06 2.05 2.15 2.45 2.62 2.66 3.03 3.42 3.89 3.99 4.16 4.12 3.71 3.29 3.22 3.45 2.72 1.98 1.85 1.83 1.33 1.31 1.27 0.99 0.84 0.72 0.86 1.08 1.29 1.56 2.06 1.89 1.50 1.45 1.71 1.63
1.95 1.59 1.41 1.41 1.52 1.65 1.84 1.91 1.94 2.00 1.86 1.89 2.16 2.38 2.74 2.99 3.14 3.31 3.65 3.94 3.87 3.95 3.96 3.48 3.40 3.47 2.97 2.19 1.82 1.51 1.07 0.97 0.75 0.81 0.80 0.87 1.05 1.36 1.75 1.93 1.71 1.67 1.83
1.76 1.68 1.43 1.37 1.36 1.50 1.64 1.99 1.93 1.76 1.87 2.17 2.27 2.35 2.44 2.52 2.61 2.76 2.83 2.85 2.83 3.15 3.60 3.59 3.71 3.74 3.30 2.63 2.26 1.87 1.66 1.36 0.91 0.85 0.75 0.81 0.91 0.93 1.06 1.41 1.78 1.82 1.73
1.78 2.11 2.22 2.29 2.13 1.78 1.71 1.70 1.76 1.87 1.85 2.09 2.16 1.93 2.16 2.25 2.08 2.13 2.38 2.55 2.52 2.92 3.14 3.15 3.44 3.71 3.47 3.12 2.67 2.57 2.45 1.94 1.80 1.46 1.17 0.90 0.85 0.95 0.98 1.01 1.08 1.31 1.62
1.14 1.75 1.84 1.89 1.77 1.62 1.66 1.28 1.03 1.45 1.65 1.62 1.94 1.69 1.48 1.66 1.65 1.33 1.43 1.96 2.35 2.65 2.86 2.80 3.08 3.44 3.46 3.12 2.99 2.74 2.55 2.41 2.38 1.91 1.59 1.45 1.32 1.18 1.17 1.21 1.24 1.25 1.27
0.75 0.93 1.17 1.31 1.43 1.21 1.37 1.01 0.96 1.04 1.06 1.01 1.00 0.96 1.05 1.31 1.11 1.24 1.31 1.31 1.44 1.80 1.96 2.04 2.14 2.36 2.42 2.17 2.16 2.39 2.50 2.87 2.98 2.15 2.07 2.07 1.68 1.70 1.74 1.76 2.05 1.72 1.39
1.12 1.02 0.99 0.99 1.22 1.30 1.49 1.40 1.26 1.12 1.23 1.28 1.23 1.21 1.10 1.07 1.20 0.93 1.28 1.42 1.37 1.56 1.68 1.59 1.67 1.58 1.71 1.66 1.68 1.91 1.96 1.98 1.98 1.84 2.02 2.36 1.98 1.94 1.85 1.98 2.43 2.15 2.02
1.43 1.38 1.36 1.13 0.84 0.90 1.13 1.06 1.42 1.51 1.69 1.64 1.59 1.42 1.43 1.50 1.54 1.49 1.50 1.79 1.56 1.43 1.51 1.60 1.70 1.62 1.59 1.57 1.68 1.70 1.73 1.97 2.10 1.81 1.69 2.18 1.73 1.82 1.73 1.61 2.03 1.49 1.32
1.52 1.53 1.49 1.49 1.31 1.17 1.36 1.12 1.10 1.00 1.22 1.31 1.26 1.30 1.29 1.15 1.88 1.92 1.61 1.82 2.05 2.23 2.56 2.57 2.51 2.54 2.56 2.41 2.09 2.37 2.87 3.22 3.16 2.74 2.33 2.11 1.90 1.73 1.61 1.34 1.28 1.44 1.01
1.77 1.72 1.66 1.55 1.80 1.50 1.96 1.62 1.55 1.38 1.49 1.51 1.41 1.43 1.93 1.47 1.89 1.62 1.60 1.58 1.75 1.78 1.92 2.25 2.31 2.21 2.18 2.22 2.60 2.34 2.22 2.29 2.24 2.41 1.99 1.75 1.51 1.56 1.95 1.56 1.10 0.94 0.82

GFSMA_prec_precacc_234.txt.gz
Total_Precipitation_Accumulation
1.15 1.64 1.47 1.51 1.05 1.50 0.98 0.65 0.61 0.54 0.62 0.69 0.62 0.53 0.32 0.38 0.22 0.30 0.38 0.56 0.62 0.74 1.10 1.09 1.04 1.03 0.75 0.51 0.48 0.52 0.61 0.68 0.74 0.81 0.98 0.97 0.69 0.60 0.55 0.59 0.47 0.43 0.47
1.51 2.10 2.03 1.89 1.39 1.32 1.33 1.08 0.68 0.65 0.59 0.75 0.59 0.51 0.39 0.40 0.18 0.25 0.31 0.46 0.54 0.61 0.93 1.33 1.48 1.28 0.76 0.42 0.25 0.28 0.34 0.37 0.52 0.78 1.00 1.01 0.84 0.62 0.55 0.46 0.45 0.44 0.41
1.41 1.93 2.12 1.92 1.71 1.61 1.37 1.58 1.31 1.02 0.90 1.01 0.69 0.60 0.47 0.50 0.30 0.20 0.22 0.29 0.32 0.44 0.62 0.87 1.13 1.16 0.89 0.51 0.30 0.18 0.21 0.18 0.24 0.41 0.54 0.71 0.87 0.80 0.75 0.66 0.63 0.61 0.54
1.59 1.88 1.96 2.15 2.40 2.69 2.40 2.12 2.18 1.71 1.35 1.38 1.26 0.84 0.68 0.55 0.51 0.21 0.15 0.30 0.33 0.34 0.47 0.59 0.81 0.96 0.96 0.72 0.47 0.31 0.23 0.26 0.23 0.30 0.38 0.54 0.78 0.78 0.85 0.82 0.83 0.87 0.88
2.37 2.31 2.34 2.70 3.07 3.07 2.79 2.38 1.91 1.75 1.41 1.40 1.55 1.24 0.97 0.68 0.71 0.57 0.27 0.23 0.37 0.35 0.33 0.41 0.47 0.56 0.68 0.79 0.75 0.58 0.43 0.37 0.31 0.32 0.37 0.38 0.50 0.90 1.13 1.12 1.00 1.09 1.27
2.13 2.46 2.55 2.24 2.38 2.58 2.58 2.50 2.47 2.26 1.88 1.65 1.75 1.80 1.41 1.22 0.98 0.90 0.61 0.37 0.35 0.39 0.35 0.42 0.40 0.42 0.58 0.75 0.86 0.80 0.62 0.49 0.46 0.41 0.42 0.36 0.37 0.50 0.64 0.94 1.26 1.42 1.48
2.04 2.62 2.96 3.13 2.61 2.07 2.30 2.42 2.55 2.40 2.20 1.90 2.27 2.32 1.81 1.29 1.10 0.90 0.75 0.57 0.56 0.45 0.56 0.50 0.59 0.52 0.62 0.69 0.74 0.70 0.65 0.54 0.48 0.49 0.44 0.34 0.37 0.39 0.53 0.77 1.13 1.42 1.77
2.11 2.18 2.56 2.88 2.76 2.24 1.83 1.70 2.11 2.72 2.94 2.71 2.65 2.64 2.51 2.23 1.66 1.27 0.89 0.63 0.47 0.44 0.57 0.73 0.56 0.58 0.71 0.75 0.62 0.65 0.70 0.71 0.57 0.55 0.71 0.64 0.49 0.40 0.40 0.53 0.67 1.10 1.45
1.97 2.29 2.55 2.56 2.38 2.18 2.04 2.14 2.45 2.88 2.79 2.90 2.68 2.74 2.52 2.05 1.58 1.43 1.20 0.82 0.84 0.85 0.70 0.78 0.92 0.72 0.62 0.62 0.61 0.58 0.54 0.63 0.88 0.91 0.97 0.83 0.69 0.54 0.57 0.60 0.63 0.76 0.98
1.90 2.59 3.06 2.94 3.15 3.44 3.01 2.84 2.62 2.98 3.59 3.96 4.43 3.82 2.87 2.32 1.99 2.03 1.90 1.74 1.55 1.41 1.41 1.78 1.84 1.96 1.95 1.90 1.73 1.45 1.38 1.35 1.37 1.62 1.81 1.73 1.52 1.57 1.68 1.57 1.16 0.83 0.79
1.47 2.02 2.68 3.21 3.51 3.59 3.47 3.39 3.24 3.32 3.40 3.29 3.52 3.68 4.04 3.69 2.92 2.09 1.84 1.86 1.83 1.60 1.23 0.96 1.22 1.49 1.46 1.31 1.32 1.34 1.23 1.51 1.48 1.49 1.63 1.55 1.39 1.40 1.56 2.02 2.08 1.60 1.23
1.31 1.72 2.09 2.44 3.16 3.47 3.42 3.19 3.32 3.24 2.95 3.00 3.35 3.41 2.95 2.70 2.64 2.49 2.05 1.63 1.68 1.60 1.48 1.14 0.95 0.96 0.98 0.86 0.89 0.98 0.79 0.68 0.87 0.93 0.91 0.92 0.83 0.81 0.89 0.91 1.17 1.45 1.30
2.10 2.31 2.54 2.48 2.73 3.14 3.93 3.63 3.65 3.64 3.74 3.09 2.73 2.64 2.51 2.37 2.09 2.21 2.17 2.07 2.16 2.08 2.08 1.65 1.16 0.95 0.98 1.18 1.07 0.96 0.92 0.90 0.78 0.83 0.76 0.64 0.59 0.57 0.55 0.64 0.68 0.75 0.74
2.85 3.17 3.64 3.93 3.36 3.14 3.72 4.11 3.80 3.72 4.28 4.33 3.81 3.25 2.83 2.59 2.67 2.62 2.57 2.80 2.61 2.18 1.96 1.78 1.35 1.14 1.15 1.13 1.12 1.42 1.31 1.20 1.10 1.00 0.87 0.78 0.77 0.72 0.69 0.66 0.71 0.78 0.80
1.78 2.26 2.52 2.69 3.31 3.46 3.24 3.40 3.47 3.19 3.44 4.02 4.04 4.22 4.18 3.47 3.14 3.20 3.15 3.12 3.26 2.66 1.62 1.22 1.50 1.44 1.44 1.33 1.28 1.23 1.12 1.23 1.25 1.19 1.06 0.89 0.80 0.85 0.98 0.97 0.91 0.89 0.88
2.34 1.84 2.00 2.04 1.85 1.84 2.10 2.60 2.84 2.65 2.62 2.82 3.16 3.52 3.92 4.17 4.21 4.15 4.04 3.83 3.57 2.92 2.36 1.56 1.51 1.35 1.38 1.19 1.35 1.29 1.02 1.11 1.18 1.31 1.31 1.40 1.40 1.18 1.02 1.15 1.31 1.19 1.01
2.29 2.18 1.87 1.86 1.87 1.72 1.88 2.06 2.06 2.15 2.45 2.62 2.66 3.03 3.44 3.96 4.12 4.42 4.47 4.18 3.94 3.85 3.80 2.96 2.17 1.94 1.95 1.40 1.40 1.43 1.10 0.90 0.76 0.89 1.10 1.30 1.56 2.07 1.90 1.52 1.47 1.72 1.64
1.95 1.59 1.41 1.41 1.52 1.65 1.84 1.91 1.94 2.00 1.86 1.89 2.16 2.38 2.74 3.01 3.19 3.48 3.90 4.17 4.15 4.38 4.44 3.81 3.76 3.83 3.29 2.42 1.94 1.72 1.24 1.09 0.83 0.89 0.84 0.89 1.05 1.36 1.75 1.95 1.74 1.69 1.84
1.76 1.68 1.43 1.37 1.36 1.50 1.64 1.99 1.93 1.76 1.87 2.17 2.27 2.35 2.44 2.52 2.63 2.82 2.96 3.04 3.03 3.46 3.96 3.90 4.08 4.22 3.77 3.05 2.63 2.22 1.93 1.55 1.01 0.96 0.84 0.86 0.94 0.94 1.07 1.41 1.80 1.84 1.75
1.78 2.11 2.22 2.29 2.13 1.78 1.71 1.70 1.76 1.87 1.85 2.09 2.16 1.93 2.16 2.26 2.11 2.23 2.55 2.79 2.79 3.17 3.39 3.40 3.72 4.17 3.96 3.62 3.17 3.09 3.03 2.43 2.05 1.61 1.30 0.99 0.91 0.99 0.99 1.02 1.09 1.32 1.63
1.14 1.75 1.84 1.89 1.77 1.62 1.66 1.28 1.03 1.45 1.65 1.62 1.94 1.69 1.48 1.66 1.66 1.37 1.53 2.07 2.54 2.91 3.08 2.99 3.29 3.72 3.80 3.48 3.44 3.20 2.96 2.83 2.72 2.14 1.79 1.61 1.42 1.26 1.23 1.23 1.25 1.26 1.28
0.75 0.93 1.17 1.31 1.43 1.21 1.37 1.02 0.96 1.04 1.06 1.01 1.00 0.96 1.05 1.31 1.11 1.25 1.33 1.42 1.61 2.03 2.17 2.19 2.31 2.52 2.57 2.37 2.38 2.64 2.82 3.20 3.48 2.64 2.29 2.27 1.76 1.75 1.82 1.79 2.06 1.72 1.39
1.12 1.02 0.99 0.99 1.22 1.30 1.50 1.41 1.26 1.12 1.23 1.28 1.23 1.21 1.10 1.07 1.20 0.93 1.28 1.45 1.43 1.67 1.79 1.70 1.79 1.72 1.80 1.77 1.85 2.15 2.18 2.12 2.11 2.13 2.23 2.57 2.15 2.00 1.91 2.02 2.44 2.15 2.03
1.43 1.38 1.36 1.13 0.84 0.90 1.13 1.07 1.42 1.51 1.69 1.64 1.59 1.42 1.43 1.50 1.54 1.49 1.50 1.79 1.57 1.46 1.56 1.67 1.74 1.71 1.69 1.65 1.79 1.82 1.84 2.10 2.24 1.93 1.77 2.30 1.88 1.88 1.78 1.66 2.06 1.50 1.33
1.52 1.53 1.49 1.49 1.31 1.17 1.37 1.13 1.10 1.00 1.22 1.31 1.26 1.30 1.29 1.15 1.88 1.93 1.61 1.82 2.05 2.23 2.59 2.64 2.60 2.64 2.73 2.60 2.28 2.58 3.18 3.69 3.64 3.20 2.73 2.45 2.19 1.90 1.74 1.45 1.37 1.46 1.02
1.77 1.72 1.66 1.55 1.80 1.50 1.96 1.62 1.55 1.38 1.49 1.51 1.41 1.43 1.93 1.47 1.90 1.62 1.61 1.58 1.75 1.78 1.92 2.26 2.36 2.25 2.23 2.35 2.84 2.48 2.40 2.48 2.48 2.83 2.47 2.01 1.77 1.74 2.23 1.85 1.26 1.01 0.84

GFSMA_prec_precacc_237.txt.gz
Total_Precipitation_Accumulation
1.17 1.67 1.48 1.54 1.07 1.51 0.99 0.65 0.61 0.54 0.62 0.69 0.62 0.53 0.32 0.38 0.22 0.30 0.38 0.56 0.62 0.74 1.11 1.10 1.04 1.03 0.75 0.51 0.48 0.52 0.61 0.68 0.75 0.82 0.99 0.98 0.70 0.61 0.55 0.59 0.47 0.43 0.47
1.61 2.21 2.14 1.97 1.44 1.38 1.42 1.19 0.77 0.72 0.63 0.80 0.62 0.54 0.43 0.41 0.19 0.25 0.31 0.46 0.54 0.61 0.93 1.34 1.49 1.29 0.76 0.43 0.25 0.28 0.34 0.37 0.53 0.78 1.01 1.02 0.84 0.63 0.56 0.46 0.45 0.44 0.41
1.42 1.94 2.14 1.96 1.75 1.65 1.41 1.67 1.45 1.18 1.14 1.25 0.93 0.80 0.58 0.56 0.32 0.20 0.22 0.29 0.32 0.44 0.62 0.87 1.14 1.17 0.90 0.51 0.30 0.18 0.21 0.18 0.25 0.41 0.54 0.72 0.87 0.80 0.75 0.66 0.63 0.61 0.54
1.59 1.88 1.96 2.16 2.42 2.71 2.42 2.16 2.24 1.75 1.38 1.45 1.39 0.95 0.77 0.59 0.53 0.22 0.15 0.30 0.33 0.34 0.47 0.59 0.81 0.97 0.96 0.73 0.48 0.31 0.23 0.26 0.23 0.30 0.39 0.54 0.78 0.78 0.86 0.83 0.84 0.87 0.88
2.37 2.31 2.34 2.70 3.07 3.07 2.80 2.40 1.94 1.81 1.44 1.42 1.57 1.31 1.05 0.74 0.75 0.61 0.27 0.23 0.37 0.35 0.33 0.41 0.47 0.56 0.68 0.80 0.75 0.58 0.43 0.37 0.31 0.32 0.37 0.39 0.50 0.90 1.13 1.13 1.01 1.10 1.29
2.13 2.46 2.55 2.24 2.38 2.58 2.58 2.50 2.48 2.30 1.94 1.72 1.82 1.82 1.44 1.27 1.01 0.92 0.64 0.39 0.35 0.39 0.35 0.42 0.40 0.42 0.58 0.75 0.86 0.80 0.62 0.49 0.46 0.41 0.42 0.36 0.37 0.51 0.65 0.95 1.27 1.43 1.49
2.04 2.62 2.96 3.13 2.61 2.07 2.30 2.42 2.55 2.42 2.24 1.99 2.39 2.40 1.85 1.32 1.14 0.91 0.78 0.59 0.58 0.45 0.56 0.50 0.59 0.52 0.62 0.69 0.74 0.70 0.65 0.54 0.48 0.50 0.44 0.34 0.37 0.40 0.53 0.77 1.13 1.43 1.78
2.11 2.18 2.56 2.88 2.76 2.24 1.83 1.70 2.11 2.72 2.95 2.74 2.76 2.76 2.62 2.32 1.72 1.32 0.91 0.65 0.48 0.44 0.57 0.74 0.56 0.58 0.71 0.75 0.62 0.65 0.70 0.71 0.57 0.56 0.72 0.64 0.49 0.40 0.40 0.53 0.67 1.10 1.45
1.97 2.29 2.55 2.56 2.38 2.18 2.04 2.14 2.45 2.88 2.79 2.90 2.74 2.99 2.83 2.24 1.71 1.51 1.25 0.85 0.86 0.87 0.72 0.79 0.93 0.72 0.62 0.62 0.61 0.58 0.54 0.64 0.88 0.92 0.98 0.84 0.70 0.55 0.57 0.60 0.63 0.76 0.98
1.90 2.59 3.06 2.94 3.15 3.44 3.01 2.84 2.62 2.98 3.59 3.96 4.43 3.83 3.02 2.64 2.34 2.32 2.11 1.91 1.67 1.47 1.44 1.82 1.90 1.99 1.96 1.90 1.73 1.45 1.38 1.35 1.37 1.63 1.82 1.74 1.53 1.58 1.69 1.57 1.16 0.83 0.79
1.47 2.02 2.68 3.21 3.51 3.59 3.47 3.39 3.24 3.32 3.40 3.30 3.53 3.70 4.05 3.74 3.12 2.52 2.28 2.25 2.34 2.00 1.40 1.01 1.36 1.72 1.63 1.41 1.35 1.35 1.24 1.51 1.48 1.49 1.64 1.56 1.40 1.41 1.56 2.02 2.08 1.61 1.23
1.31 1.72 2.09 2.44 3.16 3.47 3.42 3.19 3.32 3.24 2.95 3.01 3.38 3.43 2.97 2.72 2.67 2.60 2.34 2.01 2.12 2.04 1.98 1.53 1.12 1.09 1.13 1.01 0.98 1.03 0.80 0.68 0.87 0.93 0.91 0.92 0.83 0.82 0.89 0.92 1.18 1.46 1.31
2.10 2.31 2.54 2.48 2.73 3.14 3.93 3.63 3.65 3.64 3.74 3.10 2.74 2.67 2.55 2.42 2.15 2.27 2.29 2.29 2.46 2.38 2.47 2.09 1.51 1.21 1.16 1.28 1.13 1.01 0.94 0.91 0.78 0.83 0.76 0.64 0.59 0.57 0.56 0.65 0.69 0.76 0.75
2.86 3.17 3.64 3.93 3.36 3.14 3.72 4.11 3.80 3.72 4.28 4.34 3.81 3.27 2.86 2.64 2.77 2.78 2.72 2.98 2.96 2.57 2.30 2.11 1.64 1.37 1.34 1.27 1.23 1.49 1.32 1.23 1.13 1.00 0.87 0.78 0.77 0.73 0.69 0.66 0.71 0.78 0.81
1.79 2.26 2.52 2.69 3.31 3.46 3.24 3.40 3.47 3.19 3.44 4.02 4.04 4.23 4.20 3.50 3.21 3.42 3.45 3.49 3.70 3.10 2.01 1.60 1.79 1.56 1.51 1.43 1.39 1.29 1.16 1.26 1.27 1.20 1.07 0.89 0.80 0.85 0.98 0.97 0.91 0.89 0.88
2.34 1.84 2.00 2.04 1.85 1.84 2.10 2.60 2.84 2.65 2.62 2.82 3.16 3.53 3.94 4.19 4.25 4.24 4.20 4.06 4.03 3.64 2.95 1.89 1.92 1.76 1.56 1.27 1.43 1.38 1.13 1.25 1.25 1.33 1.32 1.40 1.40 1.18 1.02 1.15 1.31 1.19 1.01
2.29 2.18 1.87 1.86 1.87 1.72 1.88 2.06 2.06 2.15 2.45 2.62 2.66 3.04 3.44 3.96 4.13 4.44 4.53 4.26 4.10 4.24 4.43 3.38 2.53 2.33 2.28 1.53 1.47 1.54 1.29 1.13 0.95 1.00 1.13 1.31 1.56 2.07 1.90 1.52 1.47 1.72 1.64
1.95 1.59 1.41 1.41 1.52 1.65 1.84 1.91 1.94 2.00 1.86 1.89 2.16 2.38 2.74 3.01 3.19 3.48 3.91 4.20 4.19 4.48 4.70 4.18 4.05 4.23 3.81 2.70 2.02 1.83 1.44 1.32 1.02 1.04 0.94 0.94 1.07 1.37 1.75 1.95 1.74 1.69 1.84
1.76 1.68 1.43 1.37 1.36 1.50 1.64 1.99 1.93 1.76 1.87 2.17 2.27 2.35 2.44 2.52 2.63 2.82 2.96 3.05 3.09 3.56 4.11 4.09 4.31 4.64 4.33 3.58 3.04 2.48 2.18 1.85 1.33 1.15 0.94 0.92 0.97 0.95 1.07 1.41 1.80 1.84 1.75
1.78 2.11 2.22 2.29 2.13 1.78 1.71 1.70 1.76 1.87 1.85 2.09 2.16 1.93 2.16 2.26 2.11 2.23 2.55 2.81 2.85 3.28 3.56 3.60 3.89 4.42 4.39 4.13 3.65 3.69 3.69 3.05 2.58 1.97 1.52 1.11 0.98 1.02 1.01 1.02 1.09 1.32 1.63
1.14 1.75 1.84 1.89 1.77 1.62 1.66 1.28 1.03 1.45 1.65 1.62 1.94 1.69 1.48 1.66 1.66 1.38 1.55 2.10 2.59 3.00 3.22 3.13 3.45 3.95 4.14 3.89 3.89 3.70 3.57 3.52 3.36 2.54 2.27 2.00 1.64 1.40 1.31 1.26 1.25 1.26 1.28
0.75 0.93 1.17 1.31 1.43 1.21 1.37 1.02 0.96 1.04 1.06 1.01 1.00 0.96 1.05 1.31 1.11 1.25 1.34 1.44 1.67 2.13 2.36 2.41 2.48 2.69 2.77 2.67 2.68 2.92 3.18 3.82 4.27 3.35 2.90 2.78 2.05 1.98 1.98 1.86 2.09 1.73 1.39
1.12 1.02 0.99 0.99 1.22 1.30 1.50 1.41 1.27 1.12 1.23 1.28 1.23 1.21 1.10 1.07 1.20 0.93 1.28 1.46 1.45 1.73 1.94 1.90 1.93 1.83 1.93 1.93 2.05 2.40 2.39 2.35 2.43 2.57 2.80 3.12 2.60 2.24 2.02 2.09 2.48 2.16 2.03
1.43 1.38 1.36 1.13 0.84 0.90 1.13 1.07 1.43 1.51 1.69 1.64 1.59 1.42 1.43 1.50 1.54 1.49 1.50 1.79 1.57 1.47 1.58 1.76 1.89 1.85 1.83 1.78 1.89 1.95 2.01 2.30 2.51 2.26 2.11 2.74 2.38 2.24 2.01 1.76 2.11 1.51 1.34
1.52 1.53 1.49 1.49 1.31 1.17 1.37 1.13 1.11 1.00 1.22 1.31 1.26 1.30 1.29 1.15 1.88 1.93 1.61 1.82 2.05 2.23 2.59 2.65 2.64 2.75 2.92 2.80 2.50 2.79 3.39 4.01 4.11 3.74 3.30 3.04 2.75 2.29 2.10 1.73 1.55 1.55 1.05
1.77 1.72 1.66 1.55 1.80 1.50 1.96 1.63 1.55 1.38 1.49 1.51 1.41 1.43 1.93 1.48 1.90 1.62 1.61 1.58 1.75 1.78 1.92 2.26 2.36 2.27 2.31 2.58 3.07 2.58 2.49 2.57 2.65 3.15 2.89 2.37 2.20 2.06 2.61 2.23 1.68 1.29 0.98

GFSMA_prec_precacc_243.txt.gz
Total_Precipitation_Accumulation
1.25 1.74 1.59 1.64 1.19 1.62 1.06 0.74 0.67 0.58 0.63 0.72 0.64 0.55 0.34 0.44 0.24 0.30 0.38 0.57 0.63 0.74 1.11 1.15 1.09 1.04 0.75 0.51 0.48 0.52 0.61 0.68 0.75 0.83 0.99 0.99 0.71 0.61 0.55 0.59 0.47 0.43 0.48
1.65 2.23 2.19 2.02 1.47 1.41 1.47 1.25 0.84 0.80 0.70 0.90 0.77 0.70 0.57 0.59 0.35 0.30 0.32 0.48 0.55 0.64 0.94 1.37 1.55 1.33 0.77 0.43 0.25 0.28 0.34 0.37 0.53 0.79 1.01 1.02 0.85 0.63 0.56 0.46 0.45 0.44 0.42
1.42 1.94 2.15 1.97 1.76 1.67 1.43 1.70 1.50 1.25 1.21 1.32 1.03 0.97 0.71 0.72 0.49 0.38 0.29 0.32 0.35 0.45 0.63 0.89 1.15 1.19 0.93 0.53 0.30 0.18 0.21 0.18 0.25 0.41 0.55 0.72 0.88 0.81 0.75 0.67 0.63 0.61 0.54
1.59 1.88 1.96 2.16 2.42 2.71 2.43 2.16 2.24 1.77 1.40 1.49 1.42 1.00 0.83 0.71 0.63 0.31 0.27 0.37 0.37 0.39 0.49 0.60 0.81 0.97 0.98 0.76 0.49 0.31 0.23 0.26 0.23 0.30 0.39 0.54 0.79 0.78 0.86 0.83 0.84 0.87 0.89
2.37 2.31 2.34 2.70 3.07 3.07 2.80 2.40 1.94 1.81 1.45 1.45 1.61 1.34 1.08 0.78 0.80 0.68 0.35 0.30 0.41 0.44 0.41 0.45 0.48 0.57 0.71 0.84 0.77 0.59 0.43 0.37 0.31 0.32 0.38 0.39 0.50 0.91 1.13 1.13 1.02 1.10 1.29
2.13 2.46 2.55 2.24 2.38 2.58 2.58 2.50 2.48 2.30 1.94 1.73 1.83 1.85 1.47 1.29 1.03 0.95 0.66 0.42 0.41 0.45 0.41 0.47 0.43 0.42 0.59 0.79 0.90 0.84 0.63 0.50 0.47 0.41 0.42 0.36 0.37 0.51 0.65 0.95 1.27 1.43 1.50
2.04 2.62 2.96 3.13 2.61 2.07 2.30 2.42 2.55 2.42 2.24 1.99 2.39 2.41 1.88 1.36 1.17 0.93 0.79 0.63 0.64 0.52 0.63 0.54 0.62 0.54 0.63 0.72 0.78 0.75 0.68 0.56 0.49 0.50 0.45 0.34 0.37 0.40 0.53 0.77 1.13 1.43 1.78
2.11 2.18 2.56 2.88 2.76 2.24 1.83 1.70 2.11 2.72 2.95 2.74 2.76 2.76 2.62 2.33 1.72 1.34 0.95 0.71 0.56 0.56 0.70 0.87 0.66 0.65 0.75 0.79 0.65 0.69 0.74 0.74 0.59 0.56 0.72 0.65 0.50 0.40 0.41 0.54 0.68 1.11 1.46
1.97 2.29 2.55 2.56 2.38 2.18 2.04 2.14 2.45 2.88 2.80 2.90 2.75 3.00 2.83 2.25 1.72 1.51 1.28 0.92 0.95 0.98 0.83 0.95 1.13 0.94 0.80 0.76 0.69 0.62 0.57 0.66 0.89 0.93 0.99 0.84 0.70 0.55 0.57 0.60 0.64 0.76 0.98
1.90 2.59 3.06 2.94 3.15 3.44 3.01 2.84 2.63 2.98 3.59 3.96 4.43 3.83 3.04 2.67 2.36 2.32 2.12 1.99 1.87 1.73 1.68 2.04 2.12 2.22 2.20 2.16 1.97 1.64 1.48 1.39 1.39 1.64 1.83 1.74 1.53 1.59 1.70 1.58 1.17 0.84 0.80
1.47 2.02 2.68 3.21 3.51 3.59 3.47 3.39 3.24 3.33 3.40 3.30 3.54 3.70 4.05 3.74 3.12 2.53 2.28 2.25 2.35 2.10 1.65 1.35 1.70 2.03 1.93 1.73 1.70 1.69 1.53 1.67 1.55 1.52 1.66 1.56 1.40 1.42 1.57 2.03 2.09 1.61 1.23
1.31 1.72 2.09 2.44 3.16 3.47 3.42 3.19 3.32 3.24 2.95 3.01 3.38 3.43 2.97 2.73 2.69 2.62 2.36 2.02 2.13 2.05 2.03 1.82 1.55 1.50 1.52 1.38 1.35 1.40 1.24 1.07 1.11 1.01 0.94 0.94 0.84 0.83 0.90 0.93 1.19 1.47 1.31
2.10 2.31 2.54 2.48 2.73 3.14 3.93 3.63 3.65 3.64 3.74 3.10 2.74 2.67 2.55 2.42 2.17 2.31 2.35 2.33 2.49 2.39 2.49 2.15 1.75 1.61 1.65 1.81 1.52 1.35 1.30 1.20 1.06 1.05 0.87 0.70 0.61 0.58 0.57 0.66 0.70 0.78 0.76
2.86 3.17 3.64 3.93 3.36 3.14 3.72 4.11 3.80 3.72 4.28 4.34 3.81 3.27 2.86 2.64 2.77 2.80 2.77 3.05 3.03 2.62 2.37 2.17 1.76 1.69 1.76 1.77 1.77 2.07 1.87 1.69 1.45 1.24 1.05 0.88 0.83 0.75 0.70 0.67 0.72 0.79 0.81
1.79 2.26 2.52 2.69 3.31 3.46 3.24 3.40 3.47 3.19 3.44 4.02 4.04 4.23 4.20 3.50 3.22 3.45 3.54 3.60 3.83 3.23 2.07 1.68 2.02 1.90 2.00 2.01 1.97 1.86 1.71 1.85 1.88 1.79 1.47 1.11 0.95 0.92 1.00 0.98 0.92 0.90 0.89
2.34 1.84 2.00 2.04 1.85 1.84 2.10 2.60 2.84 2.65 2.62 2.82 3.16 3.53 3.94 4.19 4.25 4.25 4.25 4.20 4.24 3.94 3.26 1.99 2.04 1.99 2.03 1.86 2.10 2.11 1.82 1.91 1.89 2.03 2.08 2.07 1.77 1.45 1.14 1.17 1.32 1.20 1.01
2.29 2.18 1.87 1.86 1.87 1.72 1.88 2.06 2.06 2.15 2.45 2.62 2.66 3.04 3.44 3.96 4.13 4.44 4.53 4.28 4.13 4.30 4.57 3.45 2.56 2.40 2.62 2.18 2.11 2.10 2.01 1.91 1.72 1.72 1.86 2.05 2.28 2.67 2.27 1.66 1.50 1.73 1.64
1.95 1.59 1.41 1.41 1.52 1.65 1.84 1.91 1.94 2.00 1.86 1.89 2.16 2.38 2.74 3.01 3.19 3.48 3.91 4.21 4.20 4.50 4.74 4.22 4.07 4.26 3.90 3.05 2.61 2.49 2.14 2.17 1.91 1.90 1.65 1.69 1.88 2.05 2.32 2.27 1.84 1.74 1.86
1.76 1.68 1.43 1.37 1.36 1.50 1.64 1.99 1.93 1.76 1.87 2.17 2.27 2.35 2.44 2.53 2.63 2.82 2.97 3.06 3.09 3.56 4.13 4.14 4.33 4.65 4.36 3.74 3.53 3.09 2.92 2.63 2.22 2.12 1.84 1.70 1.71 1.61 1.65 1.78 1.97 1.90 1.77
1.78 2.11 2.22 2.29 2.13 1.78 1.71 1.70 1.76 1.87 1.85 2.09 2.16 1.93 2.16 2.26 2.11 2.24 2.55 2.81 2.85 3.29 3.59 3.72 4.03 4.51 4.44 4.24 3.96 4.21 4.42 3.86 3.48 3.00 2.64 2.21 1.92 1.75 1.60 1.46 1.31 1.43 1.67
1.14 1.75 1.84 1.89 1.77 1.62 1.66 1.28 1.03 1.45 1.65 1.62 1.95 1.69 1.49 1.67 1.67 1.38 1.56 2.11 2.59 3.01 3.26 3.20 3.52 4.05 4.24 4.12 4.28 4.17 4.24 4.19 4.10 3.32 3.34 3.39 3.08 2.65 2.25 1.86 1.55 1.38 1.33
0.75 0.93 1.17 1.31 1.43 1.21 1.37 1.02 0.96 1.04 1.06 1.01 1.00 0.96 1.05 1.32 1.12 1.25 1.35 1.45 1.67 2.14 2.38 2.51 2.66 2.94 3.02 2.94 2.99 3.27 3.64 4.51 5.27 4.35 3.88 4.06 3.34 3.37 3.20 2.74 2.68 2.01 1.49
1.12 1.02 0.99 0.99 1.22 1.30 1.50 1.41 1.27 1.12 1.23 1.28 1.23 1.21 1.10 1.07 1.20 0.93 1.29 1.46 1.45 1.74 1.97 2.00 2.08 2.00 2.12 2.14 2.35 2.74 2.80 2.83 2.93 3.11 3.65 4.36 3.84 3.48 2.99 2.90 3.07 2.53 2.21
1.43 1.38 1.36 1.13 0.84 0.90 1.13 1.07 1.43 1.51 1.69 1.65 1.59 1.42 1.43 1.50 1.54 1.49 1.50 1.79 1.57 1.47 1.59 1.79 1.97 1.99 2.05 2.05 2.18 2.29 2.40 2.81 2.92 2.67 2.75 3.99 3.68 3.53 3.04 2.56 2.71 1.95 1.64
1.54 1.55 1.49 1.49 1.31 1.17 1.37 1.13 1.11 1.00 1.22 1.31 1.26 1.30 1.29 1.15 1.88 1.94 1.62 1.82 2.05 2.23 2.59 2.65 2.65 2.78 3.04 2.94 2.70 3.02 3.73 4.51 4.67 4.42 4.30 4.07 4.10 3.65 3.32 2.78 2.32 2.16 1.61
1.77 1.72 1.66 1.55 1.80 1.50 1.96 1.63 1.55 1.38 1.49 1.51 1.41 1.43 1.94 1.48 1.90 1.63 1.61 1.58 1.75 1.78 1.92 2.26 2.37 2.28 2.33 2.61 3.16 2.73 2.71 2.91 3.11 3.83 3.67 3.02 3.03 3.01 3.76 3.45 2.69 2.23 1.85

GFSMA_prec_precacc_246.txt.gz
Total_Precipitation_Accumulation
1.31 1.77 1.60 1.64 1.19 1.62 1.06 0.74 0.67 0.59 0.64 0.74 0.66 0.56 0.34 0.44 0.25 0.32 0.39 0.57 0.63 0.74 1.11 1.16 1.11 1.06 0.75 0.51 0.48 0.52 0.61 0.68 0.75 0.83 1.00 0.99 0.71 0.62 0.56 0.60 0.48 0.44 0.48
1.71 2.27 2.20 2.02 1.47 1.41 1.47 1.25 0.84 0.80 0.71 0.92 0.83 0.77 0.60 0.60 0.38 0.32 0.34 0.50 0.56 0.67 0.96 1.37 1.58 1.40 0.83 0.48 0.28 0.28 0.34 0.37 0.53 0.79 1.01 1.03 0.85 0.63 0.56 0.47 0.45 0.44 0.42
1.44 1.95 2.15 1.97 1.76 1.67 1.43 1.70 1.50 1.25 1.21 1.32 1.03 0.98 0.73 0.74 0.50 0.39 0.31 0.36 0.38 0.48 0.65 0.91 1.16 1.21 1.01 0.61 0.41 0.23 0.21 0.18 0.25 0.41 0.55 0.72 0.88 0.81 0.76 0.67 0.63 0.61 0.54
1.59 1.88 1.96 2.16 2.42 2.71 2.43 2.16 2.24 1.77 1.40 1.49 1.42 1.00 0.83 0.72 0.65 0.33 0.29 0.40 0.43 0.44 0.51 0.61 0.83 0.98 1.02 0.83 0.56 0.37 0.27 0.27 0.23 0.30 0.39 0.54 0.79 0.78 0.86 0.83 0.84 0.87 0.89
2.37 2.31 2.34 2.70 3.07 3.07 2.80 2.40 1.94 1.81 1.45 1.45 1.61 1.34 1.08 0.78 0.80 0.68 0.35 0.31 0.43 0.46 0.43 0.47 0.49 0.57 0.72 0.89 0.86 0.67 0.49 0.42 0.33 0.32 0.38 0.39 0.50 0.91 1.13 1.13 1.02 1.10 1.29
2.13 2.46 2.55 2.24 2.38 2.58 2.58 2.50 2.48 2.30 1.94 1.73 1.83 1.85 1.47 1.29 1.03 0.95 0.66 0.43 0.42 0.47 0.44 0.49 0.44 0.43 0.60 0.81 0.96 0.92 0.70 0.56 0.51 0.43 0.43 0.36 0.37 0.51 0.65 0.95 1.27 1.44 1.50
2.04 2.62 2.96 3.13 2.61 2.07 2.30 2.42 2.55 2.42 2.24 1.99 2.39 2.41 1.88 1.36 1.17 0.93 0.79 0.63 0.64 0.53 0.64 0.57 0.66 0.57 0.68 0.74 0.79 0.80 0.76 0.66 0.57 0.53 0.46 0.34 0.37 0.40 0.53 0.77 1.13 1.43 1.79
2.11 2.18 2.56 2.88 2.76 2.24 1.83 1.70 2.11 2.72 2.95 2.74 2.76 2.76 2.62 2.33 1.72 1.34 0.95 0.71 0.56 0.56 0.70 0.87 0.70 0.69 0.81 0.85 0.71 0.74 0.82 0.88 0.72 0.64 0.74 0.66 0.50 0.40 0.41 0.54 0.68 1.11 1.46
1.97 2.29 2.55 2.56 2.38 2.18 2.04 2.14 2.45 2.88 2.80 2.90 2.75 3.01 2.83 2.25 1.72 1.51 1.28 0.92 0.95 0.98 0.83 0.95 1.13 0.94 0.80 0.79 0.79 0.72 0.68 0.81 1.08 1.08 1.06 0.85 0.71 0.56 0.57 0.60 0.64 0.76 0.99
1.90 2.59 3.06 2.94 3.15 3.44 3.02 2.85 2.63 2.99 3.59 3.96 4.43 3.84 3.04 2.67 2.36 2.32 2.12 1.99 1.87 1.73 1.68 2.04 2.12 2.22 2.20 2.16 1.98 1.70 1.59 1.53 1.54 1.82 1.98 1.80 1.54 1.59 1.70 1.58 1.17 0.84 0.80
1.47 2.02 2.68 3.21 3.51 3.59 3.47 3.39 3.24 3.33 3.40 3.30 3.54 3.70 4.05 3.74 3.12 2.53 2.28 2.25 2.35 2.10 1.65 1.35 1.70 2.03 1.93 1.73 1.70 1.70 1.56 1.79 1.75 1.74 1.88 1.75 1.47 1.42 1.58 2.03 2.09 1.61 1.24
1.31 1.72 2.09 2.44 3.16 3.47 3.42 3.19 3.32 3.24 2.95 3.01 3.38 3.43 2.97 2.73 2.69 2.62 2.36 2.02 2.13 2.05 2.03 1.82 1.55 1.50 1.52 1.38 1.35 1.40 1.24 1.10 1.20 1.24 1.27 1.29 1.12 0.94 0.91 0.94 1.20 1.47 1.32
2.10 2.31 2.54 2.48 2.73 3.14 3.93 3.63 3.65 3.64 3.74 3.10 2.74 2.67 2.55 2.42 2.17 2.31 2.35 2.33 2.49 2.39 2.49 2.15 1.75 1.61 1.65 1.81 1.52 1.35 1.30 1.21 1.09 1.17 1.14 1.09 1.05 0.96 0.70 0.67 0.71 0.78 0.76
2.86 3.17 3.64 3.93 3.36 3.14 3.72 4.11 3.80 3.72 4.28 4.34 3.81 3.27 2.86 2.64 2.77 2.80 2.77 3.06 3.03 2.62 2.37 2.17 1.76 1.69 1.76 1.77 1.77 2.07 1.87 1.69 1.46 1.27 1.15 1.15 1.18 1.18 1.11 0.80 0.74 0.80 0.81
1.79 2.26 2.52 2.69 3.31 3.46 3.24 3.40 3.47 3.19 3.44 4.02 4.04 4.23 4.20 3.50 3.22 3.45 3.54 3.60 3.83 3.23 2.07 1.68 2.02 1.90 2.00 2.01 1.97 1.86 1.71 1.85 1.88 1.80 1.50 1.21 1.16 1.23 1.39 1.37 1.06 0.94 0.90
2.34 1.84 2.00 2.04 1.85 1.84 2.10 2.60 2.84 2.65 2.62 2.82 3.16 3.53 3.94 4.19 4.25 4.25 4.26 4.20 4.24 3.95 3.26 1.99 2.04 1.99 2.03 1.86 2.10 2.11 1.82 1.91 1.89 2.03 2.10 2.15 2.00 1.67 1.44 1.51 1.62 1.34 1.06
2.29 2.18 1.87 1.86 1.87 1.72 1.88 2.06 2.06 2.15 2.45 2.62 2.66 3.04 3.44 3.96 4.13 4.44 4.53 4.28 4.13 4.31 4.57 3.45 2.56 2.40 2.62 2.18 2.11 2.11 2.01 1.91 1.73 1.72 1.88 2.07 2.40 2.98 2.67 2.15 1.93 2.03 1.85
1.95 1.59 1.41 1.41 1.52 1.65 1.84 1.91 1.94 2.00 1.86 1.89 2.16 2.38 2.74 3.01 3.19 3.48 3.92 4.21 4.20 4.50 4.74 4.22 4.07 4.26 3.90 3.05 2.61 2.49 2.15 2.17 1.92 1.91 1.66 1.72 1.94 2.22 2.72 2.91 2.57 2.30 2.32
1.76 1.68 1.43 1.37 1.36 1.50 1.64 1.99 1.93 1.76 1.87 2.17 2.27 2.35 2.44 2.53 2.63 2.82 2.97 3.06 3.09 3.56 4.14 4.14 4.33 4.65 4.36 3.75 3.54 3.10 2.93 2.63 2.23 2.13 1.85 1.72 1.77 1.84 1.93 2.21 2.67 2.70 2.40
1.78 2.11 2.22 2.29 2.13 1.78 1.71 1.70 1.76 1.87 1.85 2.09 2.16 1.93 2.16 2.26 2.11 2.24 2.56 2.82 2.85 3.29 3.59 3.73 4.04 4.51 4.45 4.25 3.97 4.22 4.44 3.87 3.54 3.03 2.69 2.26 1.97 1.91 1.88 1.88 1.82 2.06 2.28
1.14 1.75 1.84 1.89 1.77 1.62 1.66 1.28 1.03 1.45 1.65 1.62 1.95 1.69 1.49 1.67 1.67 1.38 1.56 2.11 2.59 3.01 3.26 3.20 3.52 4.05 4.24 4.12 4.29 4.19 4.27 4.21 4.11 3.36 3.48 3.52 3.19 2.83 2.50 2.28 2.13 1.93 1.78
0.75 0.93 1.17 1.31 1.43 1.21 1.37 1.02 0.96 1.04 1.06 1.01 1.00 0.96 1.05 1.32 1.12 1.25 1.35 1.45 1.68 2.15 2.39 2.51 2.66 2.94 3.02 2.95 3.00 3.30 3.71 4.55 5.31 4.38 4.05 4.28 3.56 3.63 3.53 3.17 3.25 2.64 1.99
1.12 1.02 1.00 1.00 1.23 1.30 1.50 1.41 1.27 1.12 1.23 1.28 1.23 1.21 1.10 1.07 1.20 0.93 1.29 1.46 1.45 1.75 1.98 2.00 2.08 2.01 2.12 2.14 2.35 2.75 2.84 2.88 3.01 3.17 3.94 4.65 4.03 3.75 3.30 3.28 3.55 3.09 2.76
1.43 1.39 1.36 1.14 0.85 0.91 1.13 1.07 1.43 1.51 1.69 1.65 1.60 1.42 1.43 1.50 1.54 1.49 1.51 1.79 1.57 1.47 1.59 1.79 1.97 1.99 2.05 2.05 2.18 2.29 2.40 2.82 2.96 2.75 3.03 4.41 3.91 3.76 3.32 2.93 3.15 2.43 2.19
1.55 1.55 1.50 1.51 1.33 1.18 1.37 1.14 1.11 1.00 1.22 1.31 1.26 1.30 1.29 1.15 1.89 1.94 1.62 1.82 2.05 2.23 2.59 2.65 2.65 2.78 3.04 2.94 2.71 3.02 3.73 4.55 4.73 4.55 4.60 4.47 4.35 3.97 3.59 3.20 2.74 2.58 2.11
1.78 1.73 1.67 1.55 1.80 1.51 1.96 1.64 1.56 1.38 1.49 1.51 1.41 1.43 1.94 1.48 1.90 1.63 1.61 1.58 1.75 1.78 1.92 2.26 2.37 2.28 2.33 2.62 3.17 2.73 2.73 2.96 3.20 4.01 3.98 3.39 3.34 3.28 4.16 3.95 3.15 2.65 2.36

GFSMA_prec_precacc_249.txt.gz
Total_Precipitation_Accumulation
1.39 1.84 1.73 1.68 1.24 1.65 1.07 0.74 0.68 0.61 0.68 0.80 0.73 0.63 0.42 0.55 0.34 0.42 0.45 0.65 0.69 0.77 1.11 1.17 1.14 1.12 0.78 0.52 0.48 0.52 0.61 0.68 0.75 0.83 1.00 0.99 0.71 0.62 0.56 0.60 0.48 0.44 0.48
1.74 2.31 2.26 2.11 1.57 1.47 1.49 1.26 0.85 0.80 0.71 0.93 0.85 0.81 0.68 0.77 0.55 0.51 0.51 0.65 0.63 0.70 0.99 1.38 1.59 1.45 0.90 0.50 0.28 0.28 0.34 0.37 0.53 0.79 1.01 1.03 0.85 0.63 0.56 0.47 0.45 0.44 0.43
1.46 1.97 2.18 2.00 1.78 1.69 1.44 1.70 1.50 1.25 1.21 1.32 1.03 0.98 0.73 0.75 0.53 0.47 0.42 0.43 0.47 0.53 0.66 0.93 1.17 1.22 1.04 0.65 0.51 0.29 0.27 0.22 0.26 0.42 0.55 0.72 0.88 0.81 0.76 0.67 0.64 0.61 0.54
1.59 1.89 1.96 2.16 2.42 2.71 2.43 2.16 2.24 1.77 1.40 1.49 1.42 1.00 0.83 0.72 0.65 0.33 0.30 0.44 0.48 0.50 0.55 0.61 0.84 1.01 1.05 0.83 0.58 0.45 0.36 0.33 0.29 0.35 0.40 0.54 0.79 0.78 0.86 0.83 0.84 0.87 0.89
2.37 2.31 2.34 2.70 3.07 3.07 2.80 2.40 1.94 1.81 1.45 1.45 1.61 1.34 1.08 0.78 0.80 0.68 0.35 0.31 0.44 0.48 0.47 0.48 0.49 0.57 0.74 0.91 0.87 0.68 0.55 0.48 0.39 0.38 0.42 0.40 0.50 0.91 1.13 1.13 1.02 1.10 1.29
2.13 2.46 2.55 2.24 2.38 2.58 2.58 2.50 2.48 2.30 1.94 1.73 1.83 1.85 1.47 1.29 1.03 0.95 0.66 0.43 0.42 0.48 0.46 0.52 0.47 0.44 0.60 0.81 0.97 0.93 0.76 0.64 0.60 0.50 0.47 0.38 0.37 0.51 0.65 0.95 1.27 1.44 1.50
2.04 2.62 2.96 3.13 2.61 2.07 2.30 2.42 2.55 2.42 2.24 1.99 2.39 2.41 1.88 1.36 1.17 0.93 0.79 0.63 0.64 0.53 0.65 0.57 0.66 0.58 0.69 0.75 0.79 0.81 0.80 0.77 0.68 0.65 0.54 0.37 0.38 0.40 0.53 0.77 1.13 1.43 1.79
2.11 2.18 2.56 2.88 2.76 2.24 1.83 1.70 2.11 2.72 2.95 2.74 2.76 2.76 2.62 2.33 1.72 1.34 0.95 0.71 0.56 0.56 0.70 0.87 0.70 0.69 0.81 0.86 0.74 0.76 0.84 0.96 0.88 0.85 0.91 0.76 0.53 0.43 0.42 0.54 0.68 1.11 1.46
1.97 2.29 2.55 2.56 2.38 2.18 2.04 2.14 2.45 2.88 2.80 2.90 2.75 3.01 2.83 2.25 1.72 1.51 1.28 0.92 0.95 0.98 0.83 0.95 1.13 0.94 0.80 0.79 0.79 0.72 0.69 0.82 1.11 1.19 1.25 1.06 0.80 0.59 0.59 0.60 0.64 0.76 0.99
1.90 2.59 3.06 2.94 3.15 3.44 3.02 2.85 2.63 2.99 3.60 3.97 4.43 3.84 3.04 2.67 2.36 2.32 2.12 1.99 1.87 1.73 1.68 2.04 2.12 2.22 2.20 2.16 1.98 1.70 1.59 1.54 1.55 1.84 2.04 1.98 1.80 1.79 1.79 1.60 1.17 0.84 0.80
1.47 2.02 2.68 3.21 3.51 3.59 3.47 3.39 3.24 3.33 3.41 3.30 3.54 3.70 4.05 3.74 3.12 2.53 2.28 2.25 2.35 2.10 1.65 1.35 1.70 2.03 1.93 1.73 1.70 1.70 1.56 1.79 1.75 1.74 1.89 1.80 1.66 1.70 1.84 2.21 2.15 1.62 1.24
1.31 1.72 2.09 2.44 3.16 3.47 3.42 3.19 3.32 3.24 2.95 3.01 3.38 3.43 2.97 2.73 2.69 2.62 2.36 2.02 2.13 2.05 2.03 1.82 1.55 1.50 1.52 1.38 1.35 1.40 1.24 1.10 1.20 1.24 1.27 1.29 1.14 1.12 1.23 1.24 1.43 1.59 1.34
2.10 2.31 2.54 2.48 2.73 3.14 3.93 3.63 3.65 3.64 3.74 3.10 2.74 2.67 2.55 2.42 2.17 2.31 2.35 2.33 2.49 2.39 2.49 2.15 1.75 1.61 1.65 1.81 1.52 1.35 1.30 1.21 1.09 1.17 1.14 1.09 1.05 1.00 0.95 1.03 1.07 1.06 0.94
2.86 3.17 3.64 3.93 3.36 3.14 3.72 4.11 3.80 3.72 4.28 4.34 3.81 3.27 2.86 2.64 2.77 2.80 2.77 3.06 3.03 2.62 2.37 2.17 1.76 1.69 1.76 1.77 1.77 2.07 1.87 1.69 1.46 1.27 1.15 1.15 1.18 1.18 1.15 1.11 1.16 1.21 1.22
1.79 2.26 2.52 2.69 3.31 3.46 3.24 3.40 3.47 3.19 3.44 4.02 4.04 4.23 4.20 3.50 3.22 3.45 3.54 3.60 3.83 3.23 2.07 1.68 2.02 1.90 2.00 2.01 1.97 1.86 1.71 1.85 1.88 1.80 1.50 1.21 1.16 1.23 1.39 1.43 1.33 1.32 1.27
2.34 1.84 2.00 2.04 1.85 1.84 2.10 2.60 2.84 2.65 2.62 2.82 3.16 3.53 3.94 4.19 4.25 4.25 4.26 4.20 4.24 3.95 3.26 1.99 2.04 1.99 2.03 1.86 2.10 2.11 1.82 1.91 1.89 2.03 2.10 2.15 2.00 1.67 1.44 1.52 1.75 1.60 1.44
2.29 2.18 1.87 1.86 1.87 1.72 1.88 2.06 2.06 2.15 2.45 2.62 2.66 3.04 3.44 3.96 4.13 4.44 4.53 4.28 4.13 4.31 4.58 3.45 2.56 2.40 2.62 2.18 2.11 2.11 2.01 1.91 1.73 1.72 1.88 2.07 2.40 2.98 2.67 2.15 1.98 2.22 2.09
1.95 1.59 1.41 1.41 1.52 1.65 1.84 1.91 1.94 2.00 1.86 1.89 2.16 2.38 2.74 3.01 3.19 3.48 3.92 4.21 4.20 4.50 4.75 4.22 4.07 4.26 3.90 3.05 2.61 2.49 2.15 2.17 1.92 1.91 1.66 1.72 1.94 2.22 2.72 2.92 2.60 2.42 2.54
1.76 1.68 1.43 1.37 1.36 1.50 1.64 1.99 1.93 1.76 1.87 2.17 2.27 2.35 2.44 2.53 2.63 2.82 2.97 3.06 3.09 3.56 4.14 4.14 4.33 4.65 4.36 3.75 3.54 3.10 2.93 2.63 2.23 2.13 1.85 1.72 1.77 1.84 1.93 2.21 2.70 2.79 2.60
1.79 2.11 2.22 2.29 2.14 1.79 1.71 1.70 1.76 1.87 1.85 2.09 2.16 1.93 2.16 2.26 2.11 2.24 2.56 2.82 2.85 3.29 3.59 3.73 4.04 4.51 4.45 4.25 3.98 4.22 4.45 3.88 3.54 3.03 2.69 2.26 1.97 1.91 1.88 1.88 1.84 2.15 2.53
1.14 1.76 1.84 1.90 1.78 1.63 1.68 1.29 1.04 1.45 1.65 1.62 1.95 1.69 1.49 1.67 1.67 1.38 1.56 2.11 2.59 3.01 3.26 3.20 3.52 4.05 4.24 4.12 4.29 4.19 4.27 4.21 4.11 3.37 3.48 3.53 3.20 2.84 2.50 2.29 2.13 1.97 1.96
0.75 0.93 1.17 1.31 1.45 1.23 1.39 1.05 1.00 1.07 1.07 1.01 1.00 0.96 1.05 1.32 1.12 1.25 1.35 1.45 1.68 2.15 2.39 2.51 2.66 2.94 3.02 2.95 3.00 3.31 3.71 4.55 5.31 4.38 4.06 4.30 3.58 3.70 3.57 3.18 3.26 2.66 2.09
1.12 1.02 1.00 1.00 1.24 1.31 1.51 1.42 1.29 1.14 1.26 1.29 1.23 1.21 1.10 1.07 1.20 0.93 1.29 1.46 1.45 1.75 1.98 2.00 2.08 2.01 2.12 2.14 2.36 2.75 2.84 2.88 3.01 3.17 3.96 4.69 4.05 3.86 3.42 3.39 3.62 3.12 2.83
1.43 1.39 1.37 1.14 0.85 0.91 1.14 1.07 1.43 1.51 1.70 1.65 1.60 1.42 1.43 1.50 1.54 1.50 1.51 1.80 1.57 1.47 1.59 1.79 1.97 1.99 2.05 2.05 2.18 2.29 2.40 2.82 2.96 2.75 3.06 4.50 3.96 3.87 3.43 3.08 3.27 2.51 2.30
1.55 1.55 1.50 1.51 1.34 1.19 1.38 1.14 1.12 1.03 1.25 1.33 1.27 1.31 1.30 1.16 1.89 1.94 1.62 1.82 2.05 2.23 2.59 2.65 2.65 2.78 3.04 2.94 2.71 3.03 3.73 4.55 4.74 4.56 4.62 4.57 4.45 4.23 3.87 3.42 2.89 2.70 2.25
1.78 1.73 1.67 1.55 1.80 1.52 1.96 1.64 1.58 1.42 1.56 1.55 1.44 1.45 1.95 1.49 1.90 1.63 1.61 1.58 1.76 1.78 1.92 2.26 2.37 2.28 2.33 2.62 3.17 2.74 2.73 2.96 3.20 4.02 3.99 3.48 3.45 3.65 4.66 4.28 3.41 2.83 2.58

GFSMA_prec_precacc_252.txt.gz
Total_Precipitation_Accumulation
1.50 1.93 1.95 1.74 1.37 1.80 1.12 0.77 0.70 0.62 0.71 0.83 0.79 0.75 0.62 0.75 0.49 0.54 0.70 1.01 0.92 0.83 1.14 1.17 1.14 1.14 0.78 0.52 0.48 0.52 0.61 0.68 0.75 0.83 1.00 0.99 0.71 0.62 0.56 0.60 0.48 0.44 0.48
1.86 2.44 2.37 2.18 1.59 1.52 1.54 1.28 0.85 0.80 0.71 0.93 0.85 0.82 0.71 0.81 0.61 0.55 0.56 0.91 0.85 0.80 1.03 1.41 1.63 1.51 0.91 0.50 0.28 0.28 0.34 0.37 0.53 0.79 1.01 1.03 0.85 0.63 0.56 0.47 0.45 0.44 0.43
1.49 2.01 2.21 2.04 1.81 1.72 1.46 1.70 1.50 1.25 1.21 1.32 1.03 0.98 0.73 0.75 0.54 0.49 0.45 0.48 0.59 0.71 0.73 1.05 1.23 1.23 1.08 0.67 0.51 0.29 0.27 0.22 0.26 0.42 0.55 0.72 0.88 0.81 0.76 0.67 0.64 0.61 0.54
1.59 1.89 1.96 2.16 2.43 2.71 2.43 2.16 2.24 1.77 1.40 1.49 1.42 1.00 0.83 0.72 0.65 0.33 0.30 0.45 0.50 0.54 0.60 0.64 0.87 1.04 1.05 0.84 0.62 0.49 0.37 0.33 0.29 0.35 0.40 0.54 0.79 0.78 0.86 0.83 0.84 0.88 0.89
2.37 2.31 2.34 2.70 3.07 3.07 2.80 2.40 1.94 1.81 1.45 1.45 1.61 1.34 1.08 0.78 0.80 0.68 0.35 0.31 0.44 0.48 0.49 0.50 0.49 0.58 0.75 0.92 0.87 0.71 0.63 0.54 0.40 0.38 0.42 0.40 0.50 0.91 1.13 1.13 1.02 1.10 1.29
2.13 2.46 2.55 2.24 2.38 2.58 2.58 2.50 2.48 2.30 1.94 1.73 1.83 1.85 1.47 1.29 1.03 0.95 0.66 0.43 0.42 0.48 0.47 0.55 0.50 0.46 0.61 0.82 0.97 0.93 0.77 0.70 0.69 0.56 0.48 0.38 0.37 0.51 0.65 0.95 1.27 1.44 1.50
2.04 2.62 2.96 3.13 2.61 2.07 2.30 2.42 2.55 2.42 2.24 1.99 2.39 2.41 1.88 1.36 1.17 0.93 0.79 0.63 0.64 0.53 0.65 0.58 0.66 0.58 0.70 0.76 0.80 0.81 0.81 0.81 0.79 0.77 0.65 0.42 0.39 0.41 0.55 0.78 1.13 1.43 1.79
2.11 2.18 2.56 2.88 2.76 2.24 1.83 1.70 2.11 2.72 2.95 2.74 2.76 2.76 2.62 2.33 1.72 1.34 0.95 0.71 0.56 0.56 0.70 0.87 0.70 0.70 0.81 0.86 0.74 0.77 0.84 0.96 0.92 0.90 1.01 0.92 0.65 0.47 0.46 0.57 0.68 1.11 1.46
1.97 2.29 2.55 2.56 2.38 2.18 2.04 2.14 2.46 2.88 2.80 2.90 2.75 3.01 2.83 2.25 1.72 1.51 1.28 0.92 0.95 0.98 0.83 0.95 1.13 0.94 0.80 0.79 0.79 0.72 0.69 0.83 1.12 1.19 1.26 1.17 1.08 0.88 0.71 0.64 0.65 0.77 0.99
1.90 2.59 3.06 2.94 3.15 3.44 3.02 2.85 2.63 2.99 3.60 3.97 4.43 3.84 3.04 2.67 2.36 2.32 2.12 1.99 1.87 1.73 1.68 2.04 2.12 2.22 2.20 2.16 1.98 1.70 1.59 1.54 1.56 1.84 2.04 1.98 1.84 2.07 2.25 2.02 1.43 0.91 0.80
1.47 2.02 2.68 3.21 3.51 3.59 3.47 3.39 3.24 3.33 3.41 3.31 3.54 3.70 4.05 3.74 3.12 2.53 2.28 2.25 2.35 2.10 1.65 1.35 1.70 2.03 1.93 1.73 1.70 1.70 1.56 1.79 1.75 1.74 1.89 1.80 1.66 1.72 1.93 2.44 2.51 1.90 1.36
1.31 1.72 2.09 2.44 3.16 3.47 3.42 3.19 3.32 3.24 2.95 3.01 3.38 3.43 2.97 2.73 2.69 2.62 2.36 2.02 2.13 2.05 2.03 1.82 1.55 1.50 1.52 1.38 1.35 1.40 1.24 1.10 1.20 1.24 1.27 1.29 1.14 1.12 1.24 1.34 1.67 1.97 1.83
2.10 2.31 2.54 2.48 2.73 3.14 3.93 3.63 3.65 3.64 3.74 3.10 2.74 2.67 2.55 2.42 2.17 2.31 2.35 2.33 2.49 2.39 2.49 2.15 1.75 1.61 1.65 1.81 1.52 1.35 1.30 1.21 1.09 1.17 1.14 1.09 1.05 1.00 0.95 1.03 1.10 1.18 1.22
2.86 3.17 3.64 3.93 3.36 3.14 3.72 4.11 3.80 3.72 4.28 4.34 3.82 3.28 2.86 2.64 2.77 2.80 2.78 3.06 3.03 2.62 2.37 2.17 1.76 1.69 1.76 1.77 1.77 2.07 1.87 1.69 1.46 1.27 1.15 1.15 1.18 1.18 1.15 1.11 1.16 1.21 1.24
1.79 2.26 2.52 2.69 3.31 3.46 3.24 3.40 3.47 3.19 3.44 4.02 4.04 4.23 4.20 3.50 3.22 3.45 3.54 3.60 3.84 3.24 2.07 1.68 2.02 1.90 2.00 2.01 1.97 1.86 1.71 1.85 1.88 1.80 1.50 1.21 1.16 1.23 1.39 1.43 1.33 1.32 1.27
2.34 1.84 2.00 2.04 1.85 1.84 2.10 2.60 2.84 2.65 2.62 2.82 3.16 3.53 3.94 4.19 4.25 4.25 4.26 4.20 4.24 3.95 3.26 1.99 2.04 1.99 2.03 1.86 2.10 2.11 1.82 1.91 1.89 2.03 2.10 2.15 2.00 1.67 1.44 1.52 1.75 1.60 1.44
2.29 2.18 1.87 1.86 1.87 1.72 1.88 2.07 2.06 2.15 2.45 2.62 2.66 3.04 3.44 3.96 4.13 4.44 4.53 4.28 4.13 4.31 4.58 3.45 2.56 2.40 2.62 2.18 2.11 2.11 2.01 1.91 1.73 1.72 1.88 2.07 2.40 2.98 2.67 2.15 1.98 2.22 2.09
1.95 1.59 1.41 1.41 1.52 1.65 1.84 1.92 1.94 2.00 1.86 1.89 2.16 2.38 2.74 3.01 3.19 3.48 3.92 4.21 4.20 4.50 4.75 4.22 4.07 4.26 3.90 3.05 2.61 2.49 2.15 2.17 1.92 1.91 1.66 1.72 1.94 2.22 2.72 2.92 2.60 2.42 2.54
1.76 1.68 1.43 1.38 1.36 1.50 1.64 1.99 1.93 1.76 1.87 2.17 2.28 2.35 2.44 2.53 2.63 2.82 2.97 3.06 3.09 3.56 4.14 4.14 4.33 4.66 4.36 3.75 3.54 3.10 2.93 2.63 2.23 2.13 1.85 1.72 1.77 1.84 1.93 2.21 2.70 2.79 2.60
1.79 2.11 2.22 2.30 2.14 1.79 1.72 1.72 1.79 1.92 1.90 2.12 2.18 1.95 2.17 2.26 2.11 2.24 2.56 2.82 2.85 3.29 3.60 3.73 4.04 4.51 4.45 4.25 3.98 4.22 4.45 3.88 3.54 3.03 2.69 2.26 1.97 1.91 1.88 1.88 1.84 2.15 2.53
1.14 1.76 1.84 1.90 1.78 1.63 1.69 1.31 1.08 1.52 1.73 1.71 2.02 1.76 1.54 1.70 1.68 1.38 1.56 2.11 2.59 3.01 3.27 3.21 3.52 4.05 4.24 4.12 4.29 4.19 4.27 4.21 4.11 3.37 3.49 3.53 3.20 2.84 2.50 2.29 2.13 1.97 1.96
0.75 0.93 1.17 1.31 1.45 1.23 1.39 1.05 1.00 1.09 1.12 1.07 1.05 1.00 1.09 1.35 1.15 1.26 1.35 1.45 1.68 2.15 2.39 2.51 2.66 2.94 3.03 2.95 3.00 3.31 3.71 4.55 5.31 4.38 4.06 4.30 3.58 3.70 3.57 3.18 3.26 2.66 2.09
1.12 1.02 1.00 1.00 1.24 1.31 1.51 1.42 1.29 1.14 1.26 1.31 1.25 1.24 1.12 1.09 1.23 0.95 1.29 1.46 1.45 1.75 1.98 2.00 2.08 2.01 2.12 2.15 2.36 2.75 2.84 2.88 3.01 3.17 3.96 4.69 4.05 3.86 3.42 3.39 3.62 3.12 2.83
1.43 1.39 1.37 1.14 0.85 0.91 1.14 1.07 1.43 1.52 1.70 1.66 1.61 1.44 1.46 1.52 1.57 1.53 1.53 1.80 1.57 1.47 1.59 1.79 1.97 1.99 2.05 2.05 2.19 2.30 2.41 2.82 2.96 2.75 3.06 4.50 3.96 3.87 3.43 3.08 3.27 2.51 2.31
1.55 1.55 1.50 1.51 1.34 1.19 1.38 1.14 1.13 1.04 1.25 1.33 1.27 1.32 1.31 1.18 1.92 1.99 1.67 1.84 2.05 2.24 2.59 2.65 2.66 2.79 3.04 2.94 2.71 3.03 3.74 4.55 4.74 4.56 4.62 4.58 4.45 4.23 3.88 3.42 2.90 2.71 2.29
1.78 1.73 1.67 1.55 1.81 1.52 1.96 1.64 1.58 1.43 1.56 1.55 1.44 1.46 1.97 1.52 1.94 1.68 1.65 1.62 1.78 1.79 1.92 2.26 2.37 2.28 2.34 2.62 3.18 2.74 2.73 2.96 3.21 4.03 4.00 3.48 3.45 3.65 4.69 4.31 3.48 2.94 2.69

GFSMA_prec_precacc_255.txt.gz
Total_Precipitation_Accumulation
1.59 2.05 2.14 1.91 1.48 2.02 1.32 0.92 0.84 0.75 0.79 0.90 0.84 0.80 0.72 0.85 0.59 0.68 1.05 1.53 1.25 1.14 1.34 1.28 1.23 1.23 0.82 0.52 0.48 0.52 0.61 0.68 0.75 0.83 1.00 0.99 0.71 0.62 0.56 0.60 0.48 0.44 0.48
1.94 2.59 2.49 2.26 1.63 1.66 1.65 1.34 0.87 0.83 0.75 0.96 0.87 0.83 0.71 0.82 0.63 0.59 0.60 1.13 1.09 0.99 1.10 1.51 1.75 1.65 1.08 0.59 0.29 0.28 0.34 0.37 0.53 0.79 1.01 1.03 0.85 0.63 0.56 0.47 0.45 0.44 0.43
1.50 2.02 2.21 2.05 1.84 1.75 1.48 1.74 1.51 1.26 1.22 1.32 1.03 0.98 0.73 0.75 0.54 0.49 0.45 0.49 0.64 0.76 0.85 1.17 1.32 1.29 1.18 0.81 0.63 0.32 0.27 0.22 0.26 0.42 0.55 0.72 0.88 0.81 0.76 0.67 0.64 0.61 0.54
1.59 1.89 1.96 2.16 2.43 2.71 2.43 2.16 2.24 1.77 1.40 1.49 1.42 1.00 0.83 0.72 0.65 0.33 0.30 0.45 0.50 0.54 0.61 0.66 0.90 1.09 1.09 0.90 0.70 0.61 0.48 0.37 0.29 0.35 0.40 0.54 0.79 0.78 0.86 0.83 0.84 0.88 0.89
2.37 2.31 2.34 2.70 3.07 3.07 2.80 2.40 1.94 1.81 1.45 1.45 1.61 1.34 1.08 0.78 0.80 0.68 0.35 0.31 0.44 0.48 0.49 0.51 0.49 0.60 0.78 0.94 0.90 0.78 0.75 0.74 0.51 0.42 0.43 0.40 0.51 0.91 1.13 1.13 1.02 1.10 1.29
2.13 2.46 2.55 2.24 2.38 2.58 2.58 2.50 2.48 2.30 1.94 1.73 1.83 1.85 1.47 1.29 1.03 0.95 0.66 0.43 0.42 0.48 0.47 0.55 0.50 0.47 0.63 0.85 1.00 0.94 0.78 0.78 0.82 0.70 0.66 0.45 0.41 0.52 0.65 0.95 1.27 1.44 1.50
2.04 2.62 2.96 3.13 2.61 2.07 2.30 2.42 2.55 2.42 2.24 1.99 2.39 2.41 1.88 1.36 1.17 0.93 0.79 0.63 0.64 0.53 0.65 0.58 0.66 0.58 0.70 0.77 0.82 0.84 0.83 0.85 0.86 0.88 0.80 0.61 0.56 0.49 0.58 0.81 1.14 1.43 1.79
2.11 2.18 2.56 2.88 2.76 2.24 1.83 1.70 2.11 2.72 2.95 2.74 2.76 2.76 2.62 2.33 1.72 1.34 0.95 0.71 0.56 0.56 0.70 0.87 0.70 0.70 0.81 0.86 0.74 0.77 0.85 0.97 0.93 0.93 1.06 1.02 0.78 0.57 0.51 0.62 0.72 1.13 1.46
1.97 2.29 2.55 2.56 2.38 2.18 2.04 2.14 2.46 2.88 2.80 2.90 2.75 3.01 2.83 2.25 1.72 1.51 1.28 0.92 0.95 0.98 0.83 0.95 1.13 0.94 0.80 0.79 0.79 0.72 0.69 0.83 1.12 1.20 1.27 1.23 1.19 1.03 0.84 0.70 0.69 0.80 1.01
1.90 2.59 3.06 2.94 3.15 3.44 3.02 2.85 2.63 2.99 3.60 3.97 4.43 3.84 3.04 2.67 2.36 2.32 2.12 1.99 1.87 1.73 1.68 2.04 2.12 2.22 2.20 2.16 1.98 1.70 1.59 1.54 1.56 1.84 2.04 1.98 1.85 2.11 2.31 2.10 1.61 1.10 0.95
1.47 2.02 2.68 3.21 3.51 3.59 3.47 3.39 3.24 3.33 3.41 3.31 3.54 3.70 4.05 3.74 3.12 2.53 2.28 2.25 2.35 2.10 1.65 1.35 1.70 2.03 1.93 1.73 1.70 1.70 1.56 1.79 1.75 1.74 1.89 1.80 1.66 1.72 1.93 2.45 2.59 2.11 1.78
1.31 1.72 2.09 2.44 3.16 3.47 3.42 3.19 3.32 3.24 2.95 3.01 3.38 3.43 2.97 2.73 2.69 2.62 2.36 2.02 2.13 2.05 2.03 1.82 1.55 1.50 1.52 1.38 1.35 1.40 1.24 1.10 1.20 1.24 1.27 1.29 1.14 1.12 1.24 1.34 1.67 1.98 1.90
2.10 2.31 2.54 2.48 2.73 3.14 3.93 3.63 3.65 3.64 3.74 3.10 2.74 2.67 2.55 2.42 2.17 2.31 2.35 2.33 2.49 2.39 2.49 2.15 1.75 1.61 1.65 1.81 1.52 1.35 1.30 1.21 1.09 1.17 1.14 1.09 1.05 1.00 0.95 1.03 1.10 1.18 1.22
2.86 3.17 3.64 3.93 3.36 3.14 3.72 4.11 3.80 3.72 4.28 4.34 3.82 3.28 2.86 2.64 2.77 2.80 2.78 3.06 3.04 2.62 2.37 2.17 1.76 1.69 1.76 1.77 1.77 2.07 1.87 1.69 1.46 1.27 1.15 1.15 1.18 1.18 1.15 1.11 1.16 1.21 1.24
1.79 2.26 2.52 2.69 3.31 3.46 3.24 3.40 3.47 3.19 3.44 4.02 4.04 4.23 4.20 3.50 3.22 3.45 3.54 3.60 3.84 3.24 2.07 1.68 2.02 1.90 2.00 2.01 1.97 1.86 1.71 1.85 1.88 1.80 1.50 1.21 1.16 1.23 1.39 1.43 1.33 1.32 1.27
2.34 1.84 2.00 2.04 1.85 1.84 2.10 2.60 2.84 2.65 2.62 2.82 3.16 3.53 3.94 4.19 4.25 4.25 4.26 4.20 4.24 3.95 3.26 1.99 2.04 1.99 2.03 1.86 2.10 2.11 1.82 1.91 1.89 2.03 2.10 2.15 2.00 1.67 1.44 1.52 1.75 1.60 1.44
2.29 2.18 1.87 1.86 1.87 1.72 1.88 2.07 2.06 2.15 2.45 2.62 2.67 3.04 3.45 3.96 4.13 4.44 4.53 4.28 4.13 4.31 4.58 3.45 2.56 2.40 2.62 2.18 2.11 2.11 2.01 1.91 1.73 1.72 1.88 2.07 2.40 2.98 2.67 2.15 1.98 2.22 2.09
1.95 1.59 1.41 1.41 1.52 1.65 1.84 1.92 1.95 2.01 1.87 1.90 2.17 2.39 2.76 3.02 3.20 3.48 3.92 4.21 4.20 4.50 4.75 4.22 4.07 4.26 3.90 3.05 2.61 2.49 2.15 2.17 1.92 1.91 1.66 1.72 1.94 2.22 2.72 2.92 2.60 2.42 2.54
1.76 1.68 1.43 1.38 1.36 1.50 1.64 1.99 1.93 1.77 1.88 2.19 2.29 2.37 2.46 2.55 2.66 2.84 2.98 3.06 3.09 3.56 4.14 4.14 4.33 4.66 4.36 3.75 3.54 3.10 2.93 2.63 2.23 2.13 1.85 1.72 1.77 1.84 1.93 2.21 2.70 2.79 2.60
1.79 2.11 2.22 2.30 2.14 1.79 1.72 1.72 1.79 1.92 1.91 2.15 2.21 1.98 2.20 2.30 2.16 2.28 2.59 2.83 2.85 3.29 3.60 3.73 4.04 4.51 4.45 4.25 3.98 4.22 4.45 3.88 3.54 3.03 2.69 2.26 1.97 1.91 1.88 1.88 1.84 2.15 2.53
1.14 1.76 1.84 1.90 1.78 1.63 1.69 1.31 1.08 1.52 1.73 1.71 2.02 1.77 1.57 1.77 1.79 1.50 1.67 2.20 2.63 3.03 3.27 3.21 3.52 4.05 4.24 4.12 4.29 4.19 4.27 4.21 4.11 3.37 3.49 3.53 3.20 2.84 2.50 2.29 2.13 1.97 1.96
0.75 0.93 1.17 1.31 1.45 1.23 1.39 1.05 1.00 1.09 1.12 1.07 1.05 1.00 1.09 1.36 1.18 1.32 1.41 1.52 1.75 2.20 2.40 2.51 2.66 2.94 3.03 2.95 3.00 3.31 3.71 4.55 5.31 4.38 4.06 4.30 3.58 3.70 3.57 3.18 3.26 2.66 2.09
1.12 1.02 1.00 1.00 1.24 1.31 1.51 1.42 1.29 1.14 1.26 1.31 1.25 1.24 1.12 1.09 1.23 0.96 1.34 1.51 1.49 1.78 2.01 2.01 2.08 2.01 2.12 2.15 2.36 2.76 2.85 2.88 3.01 3.17 3.96 4.69 4.05 3.86 3.42 3.39 3.62 3.12 2.83
1.43 1.39 1.37 1.14 0.85 0.91 1.14 1.07 1.43 1.52 1.70 1.66 1.61 1.44 1.46 1.52 1.57 1.53 1.56 1.86 1.61 1.49 1.61 1.80 1.98 1.99 2.05 2.05 2.19 2.30 2.41 2.83 2.97 2.75 3.06 4.50 3.96 3.87 3.43 3.08 3.27 2.51 2.31
1.55 1.55 1.50 1.51 1.34 1.19 1.38 1.15 1.13 1.04 1.25 1.33 1.27 1.32 1.31 1.18 1.92 1.99 1.69 1.91 2.12 2.28 2.61 2.66 2.66 2.79 3.04 2.95 2.71 3.03 3.75 4.56 4.74 4.56 4.62 4.58 4.45 4.23 3.88 3.42 2.90 2.71 2.29
1.78 1.73 1.67 1.55 1.81 1.52 1.96 1.64 1.58 1.43 1.56 1.56 1.44 1.46 1.97 1.52 1.94 1.68 1.66 1.64 1.82 1.83 1.95 2.29 2.38 2.29 2.34 2.63 3.18 2.75 2.74 2.98 3.22 4.04 4.00 3.48 3.45 3.65 4.69 4.31 3.48 2.94 2.69

GFSMA_prec_precacc_258.txt.gz
Total_Precipitation_Accumulation
1.65 2.14 2.23 2.03 1.57 2.11 1.43 1.03 0.93 0.83 0.84 0.96 0.97 0.89 0.84 0.92 0.63 0.75 1.16 1.66 1.37 1.30 1.61 1.97 1.72 1.69 1.25 0.65 0.50 0.52 0.61 0.68 0.75 0.83 1.00 0.99 0.71 0.62 0.56 0.60 0.48 0.44 0.48
1.95 2.59 2.50 2.28 1.64 1.67 1.66 1.38 0.90 0.88 0.82 1.02 0.94 0.88 0.76 0.84 0.63 0.61 0.61 1.13 1.11 1.09 1.21 1.69 1.96 1.82 1.29 0.75 0.43 0.35 0.36 0.37 0.53 0.79 1.01 1.03 0.85 0.63 0.56 0.47 0.45 0.44 0.43
1.50 2.02 2.21 2.05 1.84 1.75 1.48 1.74 1.52 1.26 1.23 1.33 1.04 0.98 0.73 0.75 0.54 0.49 0.45 0.49 0.64 0.76 0.87 1.20 1.39 1.42 1.39 1.00 0.81 0.49 0.43 0.27 0.26 0.42 0.55 0.72 0.88 0.81 0.76 0.67 0.64 0.61 0.54
1.59 1.89 1.96 2.16 2.43 2.71 2.43 2.16 2.24 1.77 1.40 1.49 1.42 1.00 0.83 0.72 0.65 0.33 0.30 0.45 0.50 0.54 0.61 0.66 0.91 1.09 1.14 1.04 0.91 0.87 0.72 0.58 0.42 0.36 0.41 0.55 0.79 0.78 0.86 0.83 0.84 0.88 0.89
2.37 2.31 2.34 2.70 3.07 3.07 2.80 2.40 1.94 1.81 1.45 1.45 1.61 1.34 1.08 0.78 0.80 0.68 0.35 0.31 0.44 0.48 0.49 0.51 0.49 0.60 0.79 0.95 0.93 0.87 0.92 0.98 0.81 0.68 0.67 0.57 0.53 0.91 1.13 1.13 1.02 1.10 1.29
2.13 2.46 2.55 2.24 2.38 2.58 2.58 2.50 2.48 2.30 1.94 1.73 1.83 1.85 1.47 1.29 1.03 0.95 0.66 0.43 0.42 0.48 0.47 0.55 0.51 0.47 0.63 0.86 1.02 0.99 0.85 0.88 0.96 0.88 0.93 0.76 0.66 0.60 0.67 0.95 1.27 1.44 1.50
2.04 2.62 2.96 3.13 2.61 2.07 2.30 2.42 2.55 2.42 2.24 1.99 2.39 2.41 1.88 1.36 1.17 0.93 0.79 0.63 0.64 0.53 0.65 0.58 0.66 0.58 0.70 0.78 0.84 0.85 0.84 0.88 0.94 0.98 0.95 0.78 0.84 0.76 0.82 0.93 1.16 1.44 1.79
2.11 2.18 2.56 2.88 2.76 2.24 1.83 1.70 2.11 2.72 2.95 2.74 2.76 2.76 2.62 2.33 1.72 1.34 0.95 0.71 0.56 0.56 0.70 0.87 0.70 0.70 0.81 0.86 0.74 0.77 0.85 0.97 0.95 0.96 1.10 1.09 0.89 0.73 0.66 0.80 0.87 1.19 1.47
1.97 2.29 2.55 2.56 2.38 2.18 2.04 2.14 2.46 2.88 2.80 2.90 2.75 3.01 2.83 2.25 1.72 1.51 1.28 0.92 0.95 0.98 0.83 0.95 1.13 0.94 0.80 0.79 0.79 0.72 0.69 0.83 1.12 1.20 1.28 1.24 1.22 1.09 1.00 0.93 0.81 0.92 1.09
1.90 2.59 3.06 2.94 3.15 3.44 3.02 2.85 2.63 2.99 3.60 3.97 4.43 3.84 3.04 2.68 2.36 2.32 2.12 1.99 1.87 1.73 1.68 2.04 2.12 2.22 2.20 2.16 1.98 1.70 1.59 1.54 1.56 1.84 2.04 1.98 1.85 2.13 2.35 2.19 1.81 1.27 1.06
1.47 2.02 2.68 3.21 3.51 3.59 3.47 3.39 3.24 3.33 3.41 3.31 3.54 3.70 4.05 3.74 3.12 2.53 2.28 2.25 2.35 2.10 1.65 1.35 1.70 2.03 1.93 1.73 1.70 1.70 1.56 1.79 1.75 1.74 1.89 1.80 1.66 1.72 1.93 2.48 2.65 2.22 1.97
1.31 1.72 2.09 2.44 3.16 3.47 3.42 3.19 3.32 3.24 2.95 3.01 3.38 3.43 2.97 2.73 2.69 2.63 2.37 2.02 2.13 2.05 2.03 1.82 1.55 1.50 1.52 1.38 1.35 1.40 1.24 1.10 1.20 1.24 1.27 1.29 1.14 1.12 1.24 1.34 1.68 2.00 1.95
2.10 2.31 2.54 2.48 2.73 3.14 3.93 3.63 3.65 3.64 3.74 3.10 2.74 2.67 2.55 2.42 2.17 2.31 2.35 2.33 2.49 2.39 2.49 2.15 1.75 1.61 1.65 1.81 1.52 1.35 1.30 1.21 1.09 1.17 1.14 1.09 1.05 1.00 0.95 1.03 1.10 1.18 1.23
2.86 3.17 3.64 3.93 3.36 3.14 3.72 4.11 3.80 3.72 4.28 4.34 3.82 3.28 2.86 2.64 2.77 2.80 2.78 3.06 3.04 2.62 2.37 2.17 1.76 1.69 1.76 1.77 1.77 2.07 1.87 1.69 1.46 1.27 1.15 1.15 1.18 1.18 1.15 1.11 1.16 1.21 1.24
1.79 2.26 2.52 2.69 3.31 3.46 3.24 3.40 3.47 3.20 3.44 4.02 4.04 4.23 4.20 3.50 3.22 3.45 3.54 3.60 3.84 3.24 2.07 1.68 2.02 1.90 2.00 2.01 1.97 1.86 1.71 1.85 1.88 1.80 1.50 1.21 1.16 1.23 1.39 1.43 1.33 1.32 1.27
2.34 1.84 2.00 2.04 1.85 1.84 2.10 2.61 2.84 2.65 2.62 2.82 3.16 3.53 3.94 4.20 4.25 4.25 4.26 4.20 4.24 3.95 3.27 1.99 2.04 1.99 2.03 1.86 2.10 2.11 1.82 1.91 1.89 2.03 2.10 2.15 2.00 1.67 1.44 1.52 1.75 1.60 1.44
2.29 2.18 1.87 1.86 1.87 1.72 1.88 2.07 2.06 2.15 2.45 2.63 2.68 3.06 3.47 4.00 4.17 4.46 4.55 4.29 4.13 4.31 4.58 3.45 2.56 2.40 2.62 2.18 2.11 2.11 2.01 1.91 1.73 1.72 1.88 2.07 2.40 2.98 2.67 2.15 1.98 2.22 2.09
1.95 1.59 1.41 1.41 1.52 1.65 1.84 1.92 1.95 2.01 1.87 1.91 2.18 2.40 2.77 3.04 3.23 3.51 3.95 4.24 4.23 4.53 4.76 4.23 4.07 4.26 3.90 3.05 2.61 2.49 2.15 2.17 1.92 1.91 1.66 1.72 1.94 2.22 2.72 2.92 2.60 2.42 2.54
1.76 1.68 1.43 1.38 1.36 1.50 1.64 1.99 1.93 1.77 1.88 2.19 2.29 2.37 2.46 2.55 2.67 2.86 3.01 3.11 3.13 3.60 4.19 4.18 4.35 4.66 4.36 3.75 3.54 3.10 2.93 2.63 2.23 2.13 1.85 1.72 1.77 1.84 1.93 2.21 2.70 2.79 2.60
1.79 2.11 2.22 2.30 2.14 1.79 1.72 1.72 1.79 1.92 1.91 2.15 2.21 1.98 2.20 2.30 2.16 2.28 2.61 2.87 2.89 3.34 3.63 3.77 4.07 4.52 4.45 4.25 3.98 4.22 4.45 3.88 3.54 3.03 2.69 2.26 1.97 1.91 1.88 1.88 1.84 2.15 2.53
1.14 1.76 1.84 1.90 1.78 1.63 1.69 1.31 1.08 1.52 1.73 1.71 2.02 1.77 1.57 1.77 1.79 1.51 1.68 2.21 2.66 3.08 3.33 3.27 3.58 4.09 4.26 4.12 4.29 4.19 4.27 4.21 4.11 3.37 3.49 3.53 3.20 2.84 2.50 2.29 2.13 1.97 1.96
0.75 0.93 1.17 1.31 1.45 1.23 1.39 1.05 1.00 1.09 1.12 1.07 1.05 1.00 1.09 1.36 1.18 1.32 1.41 1.52 1.75 2.24 2.48 2.58 2.71 2.97 3.04 2.95 3.00 3.31 3.71 4.55 5.31 4.38 4.06 4.30 3.58 3.70 3.57 3.18 3.26 2.66 2.09
1.12 1.02 1.00 1.00 1.24 1.31 1.51 1.42 1.29 1.14 1.26 1.31 1.25 1.24 1.12 1.09 1.23 0.96 1.35 1.51 1.49 1.79 2.03 2.05 2.13 2.03 2.12 2.15 2.36 2.76 2.85 2.88 3.01 3.17 3.96 4.69 4.05 3.86 3.42 3.39 3.62 3.12 2.83
1.43 1.39 1.37 1.14 0.85 0.91 1.14 1.07 1.43 1.52 1.70 1.66 1.61 1.44 1.46 1.52 1.58 1.55 1.57 1.86 1.61 1.49 1.61 1.81 2.00 2.01 2.05 2.06 2.19 2.31 2.41 2.83 2.97 2.75 3.06 4.50 3.96 3.87 3.43 3.08 3.27 2.51 2.31
1.55 1.55 1.50 1.51 1.34 1.19 1.38 1.15 1.13 1.04 1.25 1.33 1.27 1.32 1.32 1.19 1.92 1.99 1.69 1.91 2.13 2.28 2.61 2.66 2.67 2.80 3.06 2.97 2.74 3.06 3.75 4.57 4.74 4.56 4.62 4.58 4.45 4.23 3.88 3.42 2.90 2.71 2.29
1.78 1.73 1.67 1.55 1.81 1.52 1.96 1.64 1.58 1.44 1.56 1.56 1.45 1.47 1.97 1.52 1.95 1.68 1.67 1.64 1.83 1.83 1.96 2.29 2.39 2.30 2.35 2.65 3.22 2.77 2.74 2.99 3.22 4.04 4.00 3.48 3.45 3.65 4.69 4.31 3.48 2.94 2.69

GFSMA_prec_precacc_261.txt.gz
Total_Precipitation_Accumulation
1.65 2.15 2.25 2.04 1.57 2.12 1.43 1.05 0.95 0.89 0.91 1.04 1.04 0.96 0.90 0.97 0.66 0.78 1.23 1.72 1.41 1.35 1.68 2.08 1.85 1.76 1.38 0.85 0.65 0.65 0.71 0.71 0.75 0.83 1.00 0.99 0.71 0.62 0.56 0.60 0.48 0.44 0.48
1.95 2.59 2.50 2.28 1.64 1.67 1.66 1.38 0.90 0.88 0.83 1.03 0.96 0.90 0.78 0.89 0.65 0.63 0.64 1.17 1.15 1.11 1.22 1.74 2.11 1.90 1.44 1.29 0.96 0.71 0.59 0.49 0.59 0.80 1.01 1.03 0.85 0.63 0.56 0.47 0.45 0.44 0.43
1.50 2.02 2.21 2.05 1.84 1.75 1.48 1.74 1.52 1.26 1.23 1.33 1.04 0.98 0.73 0.75 0.54 0.49 0.45 0.49 0.64 0.76 0.87 1.20 1.41 1.46 1.45 1.15 1.18 0.92 1.15 0.94 0.46 0.47 0.55 0.72 0.88 0.81 0.76 0.67 0.64 0.61 0.54
1.59 1.89 1.96 2.16 2.43 2.71 2.43 2.16 2.24 1.77 1.40 1.49 1.42 1.00 0.83 0.72 0.65 0.33 0.30 0.45 0.50 0.54 0.61 0.66 0.91 1.10 1.15 1.09 1.10 1.36 1.14 1.05 1.02 0.73 0.58 0.61 0.79 0.78 0.86 0.83 0.84 0.88 0.89
2.37 2.31 2.34 2.70 3.07 3.07 2.80 2.40 1.94 1.81 1.45 1.45 1.61 1.34 1.08 0.78 0.80 0.68 0.35 0.31 0.44 0.48 0.49 0.51 0.49 0.60 0.79 0.95 0.96 0.94 1.06 1.16 1.24 1.38 1.27 0.95 0.65 0.92 1.13 1.13 1.02 1.10 1.29
2.13 2.46 2.55 2.24 2.38 2.58 2.58 2.50 2.48 2.30 1.94 1.73 1.83 1.85 1.47 1.29 1.03 0.95 0.66 0.43 0.42 0.48 0.47 0.55 0.51 0.47 0.63 0.86 1.03 1.02 0.96 0.97 1.06 1.03 1.19 1.21 1.24 0.93 0.71 0.96 1.27 1.44 1.50
2.04 2.62 2.96 3.13 2.61 2.07 2.30 2.42 2.55 2.42 2.24 1.99 2.39 2.41 1.88 1.36 1.17 0.93 0.79 0.63 0.64 0.53 0.65 0.58 0.66 0.58 0.70 0.78 0.84 0.86 0.85 0.91 1.01 1.08 1.04 0.90 1.09 1.29 1.28 1.11 1.18 1.44 1.79
2.11 2.18 2.56 2.88 2.76 2.24 1.83 1.70 2.11 2.72 2.95 2.74 2.76 2.76 2.62 2.33 1.72 1.34 0.95 0.71 0.56 0.56 0.70 0.87 0.70 0.70 0.81 0.86 0.74 0.77 0.85 0.97 0.96 0.99 1.13 1.14 0.94 0.94 1.36 1.60 1.14 1.23 1.47
1.97 2.29 2.55 2.56 2.38 2.18 2.04 2.14 2.46 2.88 2.80 2.90 2.75 3.01 2.84 2.25 1.72 1.51 1.28 0.92 0.95 0.98 0.83 0.95 1.13 0.94 0.80 0.79 0.79 0.72 0.69 0.83 1.12 1.20 1.29 1.25 1.24 1.12 1.12 1.61 1.91 1.32 1.19
1.90 2.59 3.06 2.94 3.15 3.44 3.02 2.85 2.63 2.99 3.60 3.97 4.43 3.84 3.05 2.68 2.37 2.33 2.12 1.99 1.87 1.73 1.68 2.04 2.12 2.22 2.20 2.16 1.98 1.70 1.59 1.54 1.56 1.84 2.04 1.98 1.85 2.13 2.37 2.22 2.04 1.89 1.36
1.47 2.02 2.68 3.21 3.51 3.59 3.47 3.39 3.24 3.33 3.41 3.31 3.54 3.70 4.05 3.74 3.12 2.53 2.28 2.25 2.35 2.10 1.65 1.35 1.70 2.03 1.93 1.73 1.70 1.70 1.56 1.79 1.75 1.74 1.89 1.80 1.66 1.72 1.93 2.49 2.66 2.25 2.19
1.31 1.72 2.09 2.44 3.16 3.47 3.42 3.19 3.32 3.24 2.95 3.01 3.38 3.43 2.97 2.73 2.69 2.63 2.37 2.02 2.13 2.05 2.03 1.82 1.55 1.50 1.52 1.38 1.35 1.40 1.24 1.10 1.20 1.24 1.27 1.29 1.14 1.12 1.24 1.34 1.68 2.01 1.97
2.10 2.31 2.54 2.48 2.73 3.14 3.93 3.63 3.65 3.64 3.74 3.10 2.74 2.67 2.55 2.43 2.17 2.31 2.35 2.33 2.49 2.39 2.49 2.15 1.75 1.61 1.65 1.81 1.52 1.35 1.30 1.21 1.09 1.17 1.14 1.09 1.05 1.00 0.95 1.03 1.10 1.18 1.23
2.86 3.17 3.64 3.93 3.36 3.14 3.72 4.11 3.80 3.72 4.28 4.34 3.82 3.28 2.86 2.64 2.77 2.80 2.78 3.07 3.04 2.62 2.37 2.17 1.76 1.69 1.76 1.77 1.77 2.07 1.87 1.69 1.46 1.27 1.15 1.15 1.18 1.18 1.15 1.11 1.16 1.21 1.24
1.79 2.26 2.52 2.69 3.31 3.46 3.24 3.40 3.47 3.20 3.44 4.02 4.04 4.23 4.20 3.50 3.22 3.45 3.55 3.61 3.86 3.26 2.07 1.68 2.02 1.90 2.00 2.01 1.97 1.86 1.71 1.85 1.88 1.80 1.50 1.21 1.16 1.23 1.39 1.43 1.33 1.32 1.27
2.34 1.84 2.00 2.04 1.85 1.84 2.10 2.61 2.84 2.65 2.62 2.82 3.16 3.53 3.95 4.20 4.25 4.26 4.27 4.22 4.27 4.01 3.32 2.00 2.05 1.99 2.03 1.86 2.10 2.11 1.82 1.91 1.89 2.03 2.10 2.15 2.00 1.67 1.44 1.52 1.75 1.60 1.44
2.29 2.18 1.87 1.86 1.87 1.72 1.88 2.07 2.06 2.15 2.45 2.63 2.68 3.06 3.47 4.00 4.17 4.47 4.55 4.30 4.16 4.35 4.65 3.50 2.59 2.41 2.62 2.18 2.11 2.11 2.01 1.91 1.73 1.72 1.88 2.07 2.40 2.98 2.67 2.15 1.98 2.22 2.09
1.95 1.59 1.41 1.41 1.52 1.65 1.84 1.92 1.95 2.01 1.87 1.91 2.18 2.40 2.77 3.04 3.23 3.51 3.95 4.24 4.24 4.54 4.80 4.29 4.10 4.28 3.91 3.05 2.61 2.49 2.15 2.17 1.92 1.91 1.66 1.72 1.94 2.22 2.72 2.92 2.60 2.42 2.54
1.76 1.68 1.43 1.38 1.36 1.50 1.64 1.99 1.93 1.77 1.88 2.19 2.29 2.37 2.46 2.55 2.67 2.86 3.01 3.12 3.13 3.61 4.20 4.23 4.41 4.69 4.38 3.75 3.54 3.10 2.93 2.63 2.23 2.13 1.85 1.72 1.77 1.84 1.93 2.21 2.70 2.79 2.60
1.79 2.11 2.22 2.30 2.14 1.79 1.72 1.72 1.79 1.92 1.91 2.15 2.21 1.98 2.20 2.30 2.17 2.28 2.62 2.88 2.90 3.35 3.64 3.78 4.09 4.55 4.48 4.26 3.98 4.23 4.45 3.88 3.54 3.03 2.69 2.26 1.97 1.91 1.88 1.88 1.84 2.15 2.53
1.14 1.76 1.84 1.90 1.78 1.63 1.69 1.31 1.08 1.52 1.73 1.71 2.02 1.77 1.57 1.77 1.79 1.51 1.68 2.22 2.67 3.10 3.34 3.27 3.58 4.10 4.29 4.14 4.30 4.19 4.27 4.21 4.11 3.37 3.49 3.53 3.20 2.84 2.50 2.29 2.13 1.97 1.96
0.75 0.93 1.17 1.31 1.45 1.23 1.39 1.05 1.00 1.09 1.12 1.07 1.05 1.00 1.09 1.36 1.18 1.32 1.41 1.53 1.76 2.25 2.49 2.59 2.71 2.98 3.05 2.96 3.01 3.31 3.72 4.56 5.31 4.38 4.06 4.30 3.58 3.70 3.57 3.18 3.26 2.66 2.09
1.12 1.02 1.00 1.00 1.24 1.31 1.51 1.42 1.29 1.14 1.26 1.31 1.25 1.24 1.12 1.09 1.23 0.97 1.35 1.52 1.50 1.80 2.04 2.07 2.14 2.04 2.14 2.17 2.39 2.79 2.85 2.89 3.01 3.17 3.96 4.69 4.05 3.86 3.42 3.39 3.62 3.12 2.83
1.43 1.39 1.37 1.14 0.85 0.91 1.14 1.07 1.43 1.52 1.70 1.66 1.61 1.44 1.46 1.52 1.58 1.56 1.58 1.86 1.61 1.49 1.61 1.81 2.00 2.01 2.06 2.07 2.21 2.34 2.44 2.84 2.98 2.75 3.06 4.50 3.96 3.87 3.43 3.08 3.27 2.51 2.31
1.55 1.55 1.50 1.51 1.34 1.19 1.38 1.15 1.13 1.04 1.25 1.33 1.27 1.32 1.32 1.19 1.92 1.99 1.70 1.92 2.13 2.28 2.61 2.66 2.67 2.80 3.06 2.97 2.75 3.09 3.80 4.60 4.76 4.56 4.62 4.58 4.45 4.23 3.88 3.42 2.90 2.71 2.29
1.78 1.73 1.67 1.55 1.81 1.52 1.96 1.64 1.58 1.44 1.56 1.56 1.45 1.47 1.97 1.52 1.95 1.69 1.70 1.69 1.86 1.83 1.96 2.29 2.39 2.30 2.35 2.65 3.23 2.81 2.78 3.03 3.24 4.05 4.00 3.48 3.45 3.65 4.69 4.31 3.48 2.94 2.69